GFSSE_500_rhum_003.txt.gz
RH
67 67 65 64 67 76 74 81 75 86 94 99 90 77 73 61 46 46 52 47 42 36 31 38 24 21 34 45 43 47 55 65 68 94 96 100 64 58 63 57 34 17 26
64 66 72 74 71 72 72 76 61 45 41 66 51 44 50 43 45 54 48 51 56 37 24 16 14 17 30 36 39 47 45 46 52 58 93 96 92 56 56 59 44 14 19
76 76 67 48 43 36 41 55 58 70 71 57 52 51 54 52 56 37 30 32 38 30 25 12 12 16 31 32 39 48 41 44 50 70 89 97 96 92 54 58 52 27 16
71 53 25 31 50 72 80 91 83 72 69 64 42 43 32 29 24 15 12 10 14 20 15 6 21 15 18 36 55 55 40 42 53 73 76 91 97 99 92 59 58 47 33
42 29 28 47 74 83 88 78 61 66 65 50 33 23 12 10 8 5 5 6 14 18 11 5 6 18 22 34 41 36 34 36 47 54 57 64 87 98 91 93 63 68 54
13 18 32 62 60 61 58 59 58 51 34 16 11 9 15 9 5 10 22 17 7 6 5 4 3 3 6 18 22 20 16 18 35 52 41 71 98 84 98 92 81 76 74
25 27 27 28 28 29 28 25 18 19 14 13 15 16 19 19 20 24 25 22 15 11 11 15 16 15 14 9 6 6 7 7 10 40 44 84 92 95 81 95 95 85 86
25 21 20 22 24 26 26 26 22 20 21 16 10 9 8 8 8 6 5 5 9 15 19 24 26 18 18 18 18 14 9 8 8 16 23 32 50 94 97 98 99 95 94
9 8 4 3 5 13 19 22 18 11 6 5 5 4 4 7 7 6 5 6 7 8 8 7 7 6 6 6 7 8 6 9 13 11 10 18 36 41 80 99 98 97 89
11 8 8 7 7 4 4 4 6 8 10 11 12 14 16 17 18 20 20 19 18 17 15 13 12 11 10 10 9 6 6 7 6 4 13 20 23 26 73 97 97 98 96
10 12 12 14 14 16 15 17 17 17 19 18 16 15 16 16 17 16 16 18 19 19 20 20 19 17 15 15 14 11 10 11 6 6 6 3 6 22 38 75 98 96 97
10 12 13 15 18 21 23 22 22 20 17 15 14 17 22 27 32 35 36 38 38 34 25 18 17 17 17 16 14 13 13 12 12 12 10 7 6 4 3 21 51 68 94
9 9 9 14 20 20 18 16 14 13 13 14 18 27 36 40 42 44 47 48 47 50 54 55 51 35 22 19 20 21 21 22 23 22 17 13 13 13 5 0 12 26 51
14 15 16 17 16 14 12 12 12 13 16 20 25 35 41 39 38 40 44 48 49 47 49 51 53 55 54 50 36 24 22 21 22 24 26 27 21 13 11 8 2 5 31
12 11 10 11 11 11 13 16 17 19 20 21 24 28 33 36 40 44 46 48 50 48 46 45 48 51 53 53 54 53 45 37 34 32 31 29 28 28 21 17 10 8 9
9 10 12 14 15 16 18 21 25 31 37 40 42 44 44 44 45 46 46 46 44 42 39 38 39 41 45 48 53 59 62 61 54 48 42 38 35 32 31 29 21 19 11
12 13 20 25 27 33 35 40 44 44 43 41 38 36 36 37 36 35 36 36 36 36 35 36 38 40 40 42 45 54 62 65 68 67 64 54 48 40 40 38 36 27 22
25 26 31 38 43 44 45 43 41 39 39 37 36 39 39 38 36 37 37 37 37 39 41 41 40 40 41 40 39 38 42 51 59 65 69 69 66 61 52 47 45 40 34
36 40 44 46 45 36 37 39 38 39 45 48 49 52 51 48 45 45 44 41 37 38 41 43 43 42 44 44 41 41 44 46 47 56 65 67 66 65 67 63 55 49 44
33 42 44 40 34 31 37 44 45 46 53 56 54 52 48 42 40 36 34 36 36 34 37 37 40 40 39 40 39 40 44 45 48 54 60 60 62 65 65 64 66 63 53
37 41 42 42 43 46 48 55 55 58 60 58 51 48 44 39 35 30 28 31 34 34 37 38 37 42 47 50 45 50 49 53 58 59 60 59 60 62 64 67 69 70 70
49 48 49 44 46 55 62 62 57 52 49 47 40 37 33 28 28 27 26 27 32 33 36 44 48 43 41 47 47 47 49 59 60 60 54 51 50 50 51 51 54 59 64
53 60 63 64 76 76 64 56 52 42 33 31 33 31 33 36 36 33 33 33 33 32 32 41 49 50 50 49 49 49 48 48 64 64 60 54 49 45 42 40 40 40 43
58 62 78 77 70 55 54 50 44 36 32 35 33 30 29 31 32 35 36 39 37 39 37 39 40 40 39 40 46 52 52 47 45 50 54 52 52 49 41 40 39 34 31
55 54 52 57 61 59 51 48 47 43 38 33 34 29 33 35 39 46 44 36 34 35 35 36 36 30 19 16 17 25 36 40 41 41 44 48 46 47 46 41 42 44 41
54 59 66 69 63 62 66 61 43 34 37 42 49 50 52 50 50 59 71 75 53 40 30 21 14 13 12 11 11 8 9 12 14 20 28 36 38 39 48 41 39 44 44

GFSSE_500_rhum_006.txt.gz
RH
68 68 66 65 66 66 67 58 43 47 53 41 23 49 48 32 28 45 35 29 32 35 45 44 26 18 15 18 38 45 48 66 56 67 70 84 83 84 78 49 43 39 21
61 62 62 62 59 44 35 29 32 51 54 38 41 49 34 30 31 26 27 24 21 20 22 20 20 10 12 16 35 51 54 50 52 57 62 88 90 78 85 67 51 55 48
60 62 67 58 32 27 23 30 33 33 39 36 44 44 35 23 19 17 13 9 6 6 8 13 14 7 18 16 30 55 69 47 44 56 60 73 82 98 94 62 56 59 58
52 51 50 31 18 17 18 35 48 38 37 30 20 17 12 8 10 7 4 6 8 6 13 16 12 5 8 20 25 35 64 60 47 48 54 65 86 96 98 76 60 59 59
23 22 17 19 26 36 44 40 46 39 21 11 10 9 9 10 11 9 12 20 25 15 6 8 7 4 3 3 20 25 49 48 41 47 51 68 81 83 95 98 70 65 65
13 21 21 18 21 28 26 21 16 11 16 14 16 14 13 16 17 22 24 20 18 17 11 9 9 10 8 6 6 18 27 30 28 22 43 56 62 79 85 98 97 88 75
19 24 21 17 17 19 21 22 23 23 21 17 6 5 5 5 5 4 4 4 4 6 10 14 18 20 20 17 16 14 7 7 8 9 12 39 73 56 95 97 97 97 76
16 12 8 4 4 8 15 22 18 10 5 5 5 6 7 9 10 11 9 8 8 8 9 8 7 7 6 6 7 10 14 13 11 14 23 35 52 85 81 96 96 96 98
8 4 4 5 6 5 5 5 7 10 11 12 12 11 11 12 12 12 11 10 10 11 11 12 12 11 10 8 6 6 6 7 7 8 13 16 26 20 28 52 94 95 87
6 6 8 10 12 14 14 14 13 14 15 15 15 15 14 14 16 19 19 19 17 16 15 13 12 11 11 12 11 10 9 7 6 6 6 5 5 7 21 29 34 92 98
7 9 10 11 9 12 14 11 11 13 12 12 14 15 18 22 30 37 41 43 44 43 44 46 43 30 16 12 12 11 11 10 10 9 6 5 5 5 4 11 26 53 91
10 15 15 13 10 10 10 9 10 11 12 13 14 15 21 33 38 39 38 38 44 50 52 56 57 55 53 41 21 16 14 14 16 16 14 12 10 7 5 3 4 4 18
12 11 9 8 8 10 12 13 12 14 16 19 23 26 29 31 32 33 34 38 43 48 50 52 52 55 53 51 50 47 33 19 18 19 20 21 23 20 12 10 8 6 4
10 9 10 9 11 14 15 18 20 26 30 36 42 44 44 45 46 45 45 46 46 45 47 49 49 48 46 46 47 48 51 49 46 30 24 24 25 25 24 20 18 12 8
10 10 12 15 23 24 28 27 29 35 40 43 47 48 48 46 44 43 43 42 40 40 40 39 39 38 38 38 37 38 40 42 42 45 46 39 34 33 33 31 27 25 18
18 19 18 21 24 29 36 36 38 41 42 39 40 40 40 41 42 42 44 43 42 41 40 41 40 40 39 37 37 39 40 40 40 41 42 46 51 48 45 43 40 34 28
28 28 29 30 33 38 44 44 47 46 40 38 37 38 44 45 44 45 44 42 41 41 41 38 37 38 40 42 41 41 40 39 39 42 44 43 43 53 55 52 51 48 41
35 37 41 42 38 36 39 46 49 42 36 38 44 46 53 53 51 48 48 46 42 37 34 32 31 31 32 34 36 37 38 36 34 35 36 39 42 43 50 58 58 56 54
37 39 35 36 33 37 39 37 40 42 49 54 55 54 54 52 47 45 43 39 32 27 27 29 34 35 40 41 40 39 38 36 36 34 32 31 33 38 43 53 60 62 62
33 31 34 35 41 45 50 48 49 58 60 60 60 57 50 46 38 35 32 28 25 24 26 26 27 30 32 43 38 37 42 40 40 39 39 37 34 35 37 40 52 58 64
35 35 42 44 49 57 56 53 56 59 62 62 62 58 44 36 29 27 21 18 20 20 22 28 26 24 26 27 26 33 34 31 40 43 46 47 46 39 34 37 44 50 56
48 50 54 58 67 78 78 71 69 64 56 50 46 43 36 28 24 21 21 22 23 24 27 31 32 32 28 32 30 33 27 28 29 37 41 46 49 48 49 46 42 46 53
57 63 70 79 82 73 69 61 55 52 46 37 32 32 33 30 29 29 29 30 30 35 36 36 33 36 34 32 31 28 28 21 26 24 21 35 43 51 51 49 51 50 48
55 60 72 69 64 60 57 52 47 40 35 31 29 30 32 33 34 35 39 43 46 49 51 54 52 49 57 49 42 34 18 16 15 13 11 11 21 40 52 50 47 49 51
52 55 58 55 51 45 43 44 45 37 35 37 38 40 43 45 48 54 58 59 57 57 57 58 56 57 54 41 38 24 12 11 9 10 11 12 10 10 32 47 52 46 41
52 53 50 48 44 42 41 38 38 42 50 48 50 51 57 66 71 68 70 70 68 57 41 36 29 22 15 15 28 27 23 24 6 0 0 6 22 10 6 29 47 54 49

GFSSE_500_rhum_009.txt.gz
RH
39 52 64 64 62 58 52 44 29 18 23 44 44 58 49 35 25 27 26 23 20 17 13 17 20 26 23 20 12 20 44 53 55 70 83 83 88 99 88 84 77 60 36
48 49 48 47 35 41 34 20 15 26 43 31 29 24 25 23 20 15 12 10 7 6 5 5 10 10 14 9 10 14 34 62 60 65 69 77 84 94 96 94 88 87 78
43 37 28 22 33 16 22 27 24 27 21 11 13 16 12 10 9 9 9 3 3 6 5 4 6 11 12 6 9 19 26 57 74 53 51 62 70 97 90 93 99 90 72
13 12 12 12 13 16 22 20 16 14 12 14 11 11 11 10 9 12 9 13 20 25 24 8 7 12 10 6 4 9 19 30 65 64 47 52 56 67 92 96 96 92 83
7 10 13 14 14 12 14 15 16 14 14 18 16 10 8 11 15 17 20 18 16 16 17 12 7 6 7 8 6 4 11 15 28 61 57 44 78 80 84 96 98 94 75
14 15 18 17 16 14 18 20 20 21 17 7 3 4 4 4 4 4 4 4 3 4 5 7 12 18 20 20 18 18 13 13 26 31 32 32 43 62 60 87 93 98 80
15 17 12 5 6 8 13 15 12 5 3 3 4 5 6 7 8 8 7 7 6 7 8 7 7 6 8 7 7 8 14 16 11 6 9 30 66 32 42 70 84 96 97
8 3 2 3 4 3 3 4 4 5 6 6 7 8 8 8 8 9 9 10 10 10 10 11 10 10 9 8 6 6 6 7 8 9 15 16 46 32 60 86 89 96 96
5 5 5 5 5 5 6 6 7 8 8 8 8 9 9 11 14 19 22 25 27 28 28 23 15 12 11 11 10 9 8 8 7 7 7 12 12 12 14 21 89 62 82
7 6 7 7 7 7 7 7 8 9 8 9 9 10 11 14 19 28 34 36 39 41 42 40 37 38 34 12 12 12 11 11 10 9 7 6 6 6 8 18 18 30 41
9 8 9 8 6 7 9 10 9 9 9 9 10 12 15 20 24 30 38 38 38 40 42 45 48 46 46 45 39 18 12 12 13 12 10 13 8 6 5 5 8 5 15
7 7 7 8 8 10 9 8 9 11 13 16 22 27 34 39 42 42 43 44 46 45 46 51 53 53 52 49 46 45 40 27 15 14 15 15 14 13 11 10 10 7 6
10 9 10 10 12 10 9 11 15 20 26 29 34 38 40 41 43 42 39 37 38 40 41 39 41 46 49 50 49 47 47 43 40 34 28 17 18 19 20 21 20 16 11
8 8 9 10 11 12 17 24 34 38 39 40 41 42 42 44 44 43 42 41 39 41 43 42 39 39 40 39 39 38 39 42 44 44 36 39 34 28 22 23 24 25 24
18 20 21 22 24 27 28 32 40 44 48 50 49 50 50 47 43 45 48 47 44 42 41 41 39 38 38 39 41 40 38 35 35 38 38 42 42 40 38 33 29 29 28
28 27 30 33 33 29 28 35 43 52 50 44 44 51 52 48 49 45 49 49 46 44 42 40 39 38 36 36 36 38 42 42 41 41 38 34 40 42 45 44 42 39 38
30 35 34 33 29 31 37 45 50 45 45 44 46 45 45 48 47 48 48 44 43 42 41 38 36 31 28 26 25 25 25 27 30 31 38 37 34 42 40 42 48 46 45
33 32 32 30 32 37 45 46 48 47 47 44 43 49 52 48 51 52 48 42 35 32 29 25 21 18 17 18 18 18 16 16 16 18 19 21 24 22 35 40 43 48 50
32 36 35 33 37 46 48 52 55 57 53 51 50 50 49 48 46 42 40 39 30 26 28 26 25 23 22 25 26 24 25 26 23 19 17 19 24 18 16 20 34 38 43
34 41 47 42 49 50 49 61 64 56 51 55 54 57 54 49 42 37 31 28 27 24 24 25 26 29 28 26 28 27 28 25 25 26 24 24 21 20 27 20 14 29 32
46 55 54 42 54 60 64 74 75 68 60 58 56 51 44 35 28 28 29 29 29 29 28 30 30 28 29 36 32 31 29 30 27 27 28 25 22 20 20 26 19 22 19
53 52 68 57 62 69 72 85 81 66 60 57 46 37 34 32 32 35 36 36 36 36 37 40 41 40 40 44 42 39 34 32 34 32 29 32 30 26 22 20 23 24 28
66 69 69 68 73 79 85 70 67 65 58 47 37 36 37 42 46 46 47 48 46 44 40 40 44 43 39 38 49 54 50 44 41 38 41 28 26 26 24 18 18 18 19
69 77 82 81 70 66 78 68 64 53 41 38 38 40 48 53 59 58 55 51 49 44 39 38 34 34 35 32 32 37 34 32 47 36 33 38 30 24 19 16 14 13 11
70 72 63 61 65 66 53 47 43 40 44 75 72 59 91 91 72 70 55 41 39 38 37 36 36 35 34 31 28 28 28 24 26 22 16 12 28 23 22 14 9 10 11
56 60 66 63 49 44 44 49 49 53 59 78 72 74 76 72 58 44 41 42 42 40 36 33 30 26 20 13 14 21 17 19 23 18 13 9 13 20 21 36 16 8 4

GFSSE_500_rhum_012.txt.gz
RH
38 37 42 44 48 50 36 33 24 20 26 36 24 25 22 21 21 17 13 12 12 10 7 6 6 8 13 17 16 17 12 25 45 39 41 66 67 73 51 66 56 74 65
51 34 43 43 33 18 14 11 22 23 23 15 10 8 7 7 7 7 6 7 4 3 3 5 5 4 5 6 10 8 6 10 14 46 57 66 70 85 80 72 79 75 73
29 27 22 9 7 11 13 17 14 10 8 11 13 12 12 10 9 8 9 7 12 17 20 22 14 6 11 13 11 7 4 6 10 28 50 59 67 60 66 66 76 94 78
18 7 6 10 12 12 11 10 8 10 12 13 7 3 2 4 6 7 9 9 9 9 10 13 13 9 6 6 6 5 3 2 9 13 40 51 50 58 70 65 89 85 98
6 9 11 13 14 13 13 14 13 10 8 3 4 4 4 4 4 4 4 4 3 4 4 4 5 7 13 15 14 14 10 5 9 10 19 37 47 56 80 94 77 89 83
10 11 12 9 5 5 7 7 8 6 4 4 4 5 5 6 6 5 5 5 6 6 6 7 7 6 5 10 13 12 14 15 8 12 14 30 51 57 91 100 95 75 86
10 9 4 3 3 3 4 4 4 4 4 5 5 6 6 7 7 8 9 10 10 10 8 7 7 8 8 6 5 5 5 8 14 12 12 45 62 70 98 90 40 49 69
4 1 2 3 3 4 4 4 5 5 6 6 6 7 8 9 11 14 20 24 28 29 28 28 24 16 9 8 7 7 7 5 5 6 12 21 33 52 83 94 24 60 62
3 4 4 4 5 5 5 5 6 6 6 7 8 8 9 10 12 17 24 31 34 35 35 33 31 31 34 28 13 8 8 9 9 7 5 6 7 7 9 7 8 25 24
4 5 5 5 6 6 6 7 8 8 8 8 9 9 10 13 18 26 30 32 36 38 37 39 42 43 43 41 44 40 17 10 11 12 11 11 9 7 6 8 7 8 14
5 6 7 6 7 8 7 9 10 10 10 12 15 18 24 30 36 42 47 44 46 44 42 42 41 43 45 49 46 44 43 39 20 16 17 13 13 10 9 10 7 6 6
7 7 6 7 8 8 7 8 10 12 17 22 27 32 34 33 33 30 32 34 36 35 32 35 40 41 39 36 36 43 47 41 40 37 32 25 16 15 15 13 13 13 12
6 6 8 9 10 12 13 15 20 24 26 29 35 36 34 31 32 34 34 35 39 44 44 41 38 41 42 38 36 35 34 35 38 37 34 35 30 27 23 20 19 20 21
13 17 17 17 20 24 28 29 27 32 33 29 32 34 35 36 37 40 43 46 47 43 44 45 42 41 41 39 39 39 37 35 36 37 33 33 36 37 36 31 28 26 22
18 18 22 25 27 27 22 29 34 37 34 36 39 40 45 44 44 47 50 51 49 45 43 41 40 38 36 35 34 32 31 31 32 32 30 33 35 36 35 36 39 38 34
18 16 19 18 23 28 28 34 37 41 40 41 45 52 53 50 51 52 49 44 44 43 38 31 28 28 28 25 20 18 16 15 16 19 24 19 23 30 35 37 35 37 38
25 17 26 68 29 35 41 44 38 49 44 42 41 44 43 40 45 45 46 44 40 35 28 23 22 21 21 20 19 18 18 18 18 17 15 14 13 12 13 18 29 32 34
23 28 96 48 33 37 44 39 42 37 43 40 39 36 44 45 44 38 35 31 26 26 26 26 25 23 21 21 22 22 20 21 21 20 21 22 21 18 16 14 12 16 27
30 26 20 16 29 62 73 55 45 48 56 55 52 47 52 46 44 34 27 25 28 28 30 30 28 28 27 26 24 20 20 20 21 22 20 22 26 24 13 20 18 16 16
29 38 34 27 64 86 74 75 66 55 58 62 78 56 56 44 38 31 28 27 27 28 31 31 28 25 23 22 21 21 22 21 21 21 20 21 18 18 23 15 15 20 18
44 46 50 66 86 82 60 68 72 75 89 87 72 46 49 33 36 31 30 32 34 35 32 27 23 20 20 21 20 19 18 19 20 23 24 19 19 18 15 20 20 16 20
55 58 56 70 77 86 79 68 79 97 75 65 56 45 36 38 53 58 51 40 42 39 40 34 28 28 28 32 30 28 18 17 22 24 24 24 23 24 23 21 16 18 18
55 68 82 87 98 96 81 68 76 68 66 55 49 62 47 49 58 96 82 59 45 43 40 33 33 35 34 35 37 36 30 24 23 26 29 30 30 30 28 29 34 18 23
74 84 84 70 66 99 82 70 68 56 52 54 58 60 56 55 56 58 57 48 38 38 40 41 41 40 37 33 33 34 33 32 30 25 27 27 30 34 33 63 85 87 28
59 60 59 68 70 66 61 55 54 58 53 53 52 49 47 43 40 45 47 46 46 48 48 46 41 41 40 36 34 31 30 26 24 24 29 28 23 22 37 28 62 91 100
64 67 70 66 56 51 54 57 52 51 47 44 41 41 44 47 51 55 56 58 58 52 55 53 54 66 38 30 25 22 20 18 19 28 19 10 8 11 12 23 27 33 93

GFSSE_500_rhum_015.txt.gz
RH
58 60 50 35 39 39 37 16 13 18 19 22 21 13 8 7 7 7 6 6 6 5 4 4 4 4 4 4 8 9 9 11 8 11 19 46 59 68 77 93 92 84 86
57 88 46 24 20 9 9 10 13 15 13 8 7 9 8 8 8 7 6 5 6 7 9 10 13 14 5 5 6 6 11 6 5 11 10 16 38 57 79 91 100 99 84
40 28 22 8 7 9 10 8 6 6 9 10 4 2 2 2 3 3 4 4 3 3 4 5 8 11 7 4 8 10 8 5 3 5 11 8 38 64 72 79 89 92 100
18 18 6 9 9 11 11 11 9 9 7 3 4 5 5 6 6 6 6 6 5 6 6 6 4 4 8 12 12 9 9 7 3 4 9 8 19 50 75 85 82 96 99
10 7 8 9 9 8 8 10 7 6 3 4 5 6 6 6 6 6 6 6 6 7 7 7 8 8 6 6 14 15 14 15 12 5 9 14 35 56 82 96 95 91 97
7 8 8 6 3 3 5 5 4 4 4 5 6 6 6 6 7 8 8 11 13 14 13 12 9 8 8 7 6 6 6 7 13 14 10 15 15 44 62 86 68 77 96
8 7 3 2 2 3 3 3 4 4 5 5 6 6 7 8 10 13 16 22 24 26 26 26 25 25 24 15 8 7 7 6 5 7 12 15 51 47 44 46 68 91 94
5 2 2 3 4 4 4 5 5 5 6 6 7 8 8 9 10 12 15 20 25 25 25 24 24 24 26 28 31 23 10 8 8 8 7 7 23 17 17 20 68 68 67
2 3 4 4 4 5 5 6 7 7 8 8 8 9 10 10 13 18 24 29 31 32 34 35 34 32 33 33 36 37 38 31 12 10 11 12 9 6 6 16 8 14 28
4 4 4 5 5 6 7 7 7 8 8 9 12 16 18 23 28 30 32 35 36 35 34 32 30 29 30 31 32 38 40 40 41 32 19 12 14 14 12 8 6 6 6
4 5 6 6 6 6 6 7 8 10 12 16 22 26 29 36 36 41 42 38 34 35 38 41 41 37 34 34 34 31 31 39 40 40 38 38 22 14 14 14 13 11 10
6 8 7 6 7 9 10 12 15 19 22 22 20 27 31 33 31 32 32 35 39 40 43 40 38 39 41 36 36 37 34 34 34 29 34 37 39 39 23 15 15 16 16
6 9 11 12 14 17 22 21 20 25 26 24 27 29 30 33 36 36 36 36 40 43 45 44 43 41 41 42 41 38 36 34 33 33 35 35 34 33 36 37 22 16 17
14 18 16 17 22 21 15 13 13 12 16 26 32 31 33 38 46 48 47 44 43 41 38 38 38 37 33 33 35 35 34 34 32 29 28 29 31 36 32 32 34 34 30
13 16 20 23 30 28 25 28 21 17 19 27 34 40 39 44 46 43 44 44 42 41 41 39 37 34 24 17 16 17 19 21 20 18 16 14 15 20 29 34 32 33 33
10 12 31 47 61 61 39 34 29 27 26 31 40 43 41 40 40 42 45 43 39 35 32 29 24 23 21 19 18 18 17 16 16 15 14 14 14 13 13 15 23 28 32
21 24 35 81 89 96 79 65 71 72 40 28 32 40 47 42 47 49 41 36 27 26 24 21 21 20 18 18 18 16 15 16 17 18 19 17 18 16 16 16 16 16 19
17 21 31 87 46 73 95 97 94 90 63 42 37 36 36 39 52 49 38 32 27 25 24 24 23 22 22 22 23 22 20 19 18 18 19 21 19 21 21 20 18 17 18
25 27 18 34 50 64 82 91 85 59 56 62 52 42 38 49 55 47 33 33 32 28 27 28 28 27 26 26 23 23 22 20 18 16 15 15 14 14 16 18 21 22 23
31 44 22 26 56 57 50 44 53 66 64 55 50 54 54 49 43 38 35 42 42 37 36 33 31 30 27 24 23 23 21 19 18 16 13 12 11 9 7 7 8 12 15
76 43 26 44 37 52 47 56 82 73 74 58 57 53 41 41 47 47 44 41 39 41 41 38 33 31 31 31 29 26 24 22 21 19 20 20 19 16 12 11 9 7 8
78 80 63 55 78 56 63 66 76 87 79 67 58 50 51 47 44 46 46 42 40 37 35 34 33 31 31 34 33 29 21 24 27 29 26 26 23 20 16 14 11 10 10
35 45 74 83 71 57 65 73 82 79 62 58 58 51 52 56 54 47 40 33 29 26 19 18 25 30 31 38 45 42 33 28 24 33 35 32 31 29 27 24 20 16 14
44 50 50 55 66 75 74 67 62 56 59 55 58 59 54 49 43 39 36 31 26 23 25 29 31 33 33 36 43 44 44 42 34 24 30 32 32 31 30 29 29 28 27
50 51 61 68 68 65 61 61 60 60 63 63 56 49 37 30 28 29 27 25 26 30 36 37 37 46 56 57 48 41 39 46 61 49 22 21 17 15 20 27 32 30 26
49 61 64 65 64 60 62 66 64 55 48 42 39 33 27 26 32 36 35 38 42 42 43 43 47 51 53 61 63 64 55 14 6 10 13 9 4 3 4 8 12 28 37

GFSSE_500_rhum_018.txt.gz
RH
100 86 71 72 55 22 20 16 10 8 10 13 9 5 6 6 6 7 6 5 5 5 5 5 6 9 10 7 4 3 4 6 7 10 7 7 10 22 48 67 93 96 96
98 72 60 57 17 8 7 8 8 8 7 4 5 5 3 3 3 4 4 4 4 4 4 4 4 5 8 7 5 4 6 7 7 6 5 11 7 10 21 43 68 94 97
97 64 22 17 6 9 9 9 6 5 6 5 3 4 4 5 5 6 6 6 6 6 6 7 8 6 5 5 7 6 4 5 6 6 5 3 6 14 12 22 45 59 94
56 35 14 6 8 9 11 10 7 7 4 3 5 6 6 7 7 7 7 6 6 7 7 7 8 8 8 7 6 6 9 10 10 10 5 3 9 14 21 28 75 88 95
50 13 5 7 8 6 6 7 7 4 4 6 6 6 6 6 8 10 10 10 10 11 12 11 11 10 8 8 8 7 6 6 7 11 13 8 8 13 21 24 43 67 86
8 5 6 6 4 3 3 3 3 3 5 5 6 6 7 9 11 14 15 15 18 19 20 21 21 21 20 20 18 11 8 7 6 5 5 12 11 22 32 25 34 50 68
6 7 6 2 2 3 3 4 4 4 5 5 6 7 8 10 11 12 13 15 19 23 28 30 32 32 32 30 29 30 30 20 11 9 8 6 7 23 35 54 50 45 80
7 5 2 3 3 4 4 5 5 6 6 7 8 8 8 8 9 11 13 17 21 24 26 29 31 32 32 32 32 33 34 35 40 40 20 11 9 10 12 8 9 31 49
4 2 3 4 4 5 5 6 7 8 8 8 9 10 12 15 18 21 25 24 25 24 26 29 29 30 31 30 32 31 34 37 36 41 50 52 25 14 13 11 15 19 13
2 3 4 5 5 5 6 7 8 8 9 10 12 17 22 24 23 21 21 21 20 23 25 28 34 40 41 37 32 34 29 28 30 36 42 46 48 47 44 27 14 12 12
4 5 5 6 7 8 10 11 10 10 14 19 25 26 23 25 25 24 25 27 26 29 32 36 36 38 38 38 40 38 33 32 32 29 32 37 41 46 44 46 31 16 15
5 7 6 8 8 9 12 13 19 24 27 25 24 28 29 32 33 35 36 37 36 35 33 33 36 38 40 42 41 39 38 36 36 36 33 33 31 33 36 38 40 34 20
9 8 9 10 13 16 20 26 26 26 25 22 26 29 30 28 30 29 32 31 30 29 30 32 36 38 40 42 41 38 37 36 35 35 36 35 36 33 30 31 31 32 34
11 13 15 17 18 22 23 21 19 22 25 26 23 22 22 26 29 30 32 32 35 38 37 38 38 40 39 39 38 31 23 19 19 21 24 29 28 28 30 27 27 28 30
17 16 23 28 27 54 35 63 64 36 35 43 47 32 30 31 37 38 35 30 35 37 33 31 27 25 29 27 25 22 20 19 18 16 14 14 14 14 14 16 18 22 27
12 23 31 40 64 64 60 52 92 80 72 66 70 57 45 44 46 39 36 34 36 37 30 23 22 23 22 20 21 21 22 23 22 21 18 16 16 15 15 16 15 16 15
11 10 21 36 67 64 66 83 72 86 83 71 51 41 64 62 55 51 48 42 40 35 32 28 27 27 24 25 22 23 23 24 26 26 25 23 21 20 19 16 16 17 18
11 16 19 63 83 78 61 85 76 54 51 39 35 46 56 64 59 54 46 43 41 36 35 34 32 31 30 30 30 31 30 28 26 25 24 23 21 20 19 18 18 18 18
11 18 66 100 98 91 89 57 48 65 55 55 70 65 61 54 46 46 45 43 40 42 42 38 36 34 35 36 35 33 31 30 29 27 25 25 23 20 17 15 12 11 12
18 46 70 81 100 100 96 45 38 52 93 94 84 66 54 52 51 49 48 47 48 45 38 32 26 24 21 19 19 21 24 23 21 19 16 17 17 19 21 18 15 14 14
66 72 77 88 70 34 32 34 52 80 90 87 70 63 58 56 57 59 58 50 35 24 19 16 14 14 13 13 11 12 12 12 13 13 13 11 10 12 15 17 17 17 17
93 92 54 34 31 33 31 64 87 79 77 77 66 63 64 65 64 55 37 26 21 19 17 17 18 18 19 19 18 16 12 14 18 19 21 19 17 16 16 15 14 14 14
51 45 41 37 36 44 56 70 77 76 70 66 69 69 65 56 41 31 28 24 20 19 20 21 22 22 19 21 23 23 21 18 17 24 30 30 29 30 29 26 25 19 14
48 42 44 48 54 62 69 74 72 70 73 75 74 69 59 47 36 34 30 25 23 22 22 22 23 22 24 28 33 38 37 34 27 19 22 30 43 50 43 40 43 43 34
60 63 62 67 66 68 69 71 75 78 78 71 56 39 32 35 35 27 23 22 24 27 28 30 34 40 42 41 37 33 31 30 27 24 21 21 21 28 43 40 32 24 31
70 68 60 58 67 72 75 78 65 42 30 26 26 27 30 29 26 27 29 28 27 27 26 26 21 17 12 11 13 13 12 9 8 8 7 7 7 7 9 16 20 16 9

GFSSE_500_rhum_021.txt.gz
RH
73 97 95 88 62 49 14 8 7 7 9 9 4 3 3 3 4 4 4 4 5 6 6 6 6 6 5 4 5 5 4 3 5 6 6 7 5 10 9 8 13 35 67
86 98 98 85 38 12 6 6 8 7 5 4 3 3 3 4 4 6 7 8 8 8 9 9 10 10 11 10 8 6 5 4 4 5 7 6 6 5 4 8 9 24 39
63 55 81 74 19 6 6 8 8 4 4 3 5 6 6 7 8 8 8 8 8 9 9 9 9 9 10 10 11 12 11 7 7 9 10 6 4 3 4 6 9 9 15
33 49 49 30 8 6 8 9 8 5 4 4 6 6 6 7 7 8 10 10 11 11 12 11 13 14 15 13 12 11 10 9 8 6 6 11 10 4 6 10 13 18 34
40 40 65 8 6 7 5 6 6 5 4 5 6 6 6 6 7 10 11 12 14 15 16 18 19 20 20 22 23 24 21 17 11 8 7 6 6 11 9 16 15 25 32
20 13 6 5 6 3 3 4 4 4 4 5 6 6 6 7 8 9 11 13 16 18 20 23 26 28 27 28 29 26 25 26 29 25 13 9 8 6 8 21 50 41 46
10 5 5 5 2 3 3 4 4 4 5 5 5 6 7 8 8 9 10 10 12 14 17 21 24 26 26 27 29 30 30 30 30 31 37 34 15 11 8 10 18 46 38
5 5 5 2 3 3 4 4 4 5 5 6 6 7 8 9 10 12 16 19 23 27 27 27 27 27 26 24 24 22 25 30 34 35 36 39 44 30 17 13 15 16 14
5 6 2 3 4 4 4 5 5 6 7 8 8 10 11 16 22 24 26 27 26 28 24 23 23 24 24 30 34 34 31 29 30 31 35 36 37 43 45 36 39 45 33
5 2 3 3 4 5 6 6 7 8 8 9 11 15 22 24 23 22 26 28 28 29 26 30 31 34 36 37 36 38 38 38 35 35 34 32 36 42 49 56 58 46 29
2 3 4 5 6 6 7 8 8 9 10 14 19 22 23 26 29 32 35 37 39 34 32 29 29 29 31 33 34 35 38 38 39 37 36 39 35 36 40 48 58 48 42
4 5 5 6 8 9 8 9 11 15 19 20 26 20 24 25 27 27 30 31 33 33 33 32 33 33 33 34 36 37 37 39 36 36 40 40 40 38 34 33 33 35 38
6 7 7 8 10 13 14 16 22 24 18 20 24 24 24 24 22 19 22 28 32 33 32 33 36 37 37 36 36 39 38 37 32 25 22 28 34 38 38 35 35 37 36
8 10 13 19 21 20 22 28 31 32 56 67 64 64 67 54 26 20 21 30 32 30 32 34 38 35 31 27 27 31 32 29 27 23 22 22 20 19 23 26 29 32 36
14 17 21 22 25 44 41 57 62 68 90 97 94 82 70 50 21 22 29 35 41 43 41 38 36 34 28 29 28 28 27 25 25 24 23 22 20 21 21 19 17 16 16
20 26 26 30 33 35 58 67 63 78 86 81 73 49 38 21 28 36 42 43 42 38 34 33 34 34 32 30 32 32 31 30 29 27 26 26 25 22 20 19 20 19 19
20 16 13 30 45 59 72 80 70 64 57 32 27 27 41 62 69 55 48 41 40 39 41 42 42 40 40 40 39 39 38 38 36 33 30 29 29 29 27 26 24 22 20
15 15 59 73 87 98 92 95 87 80 48 22 28 42 64 63 67 50 44 47 51 53 55 53 48 39 22 13 12 12 12 13 16 20 24 29 32 29 28 26 26 28 24
16 31 67 93 96 97 96 98 61 32 29 34 58 71 77 77 60 52 58 58 52 35 20 14 12 11 11 11 11 12 12 11 11 10 10 10 9 12 23 28 25 23 22
26 60 97 98 98 99 90 47 39 39 47 84 91 74 72 61 64 64 46 28 16 13 13 13 14 14 14 12 11 10 10 11 11 12 11 10 11 10 9 9 12 21 21
58 88 99 99 79 47 48 39 55 75 92 82 72 71 64 71 63 36 21 18 16 18 17 16 17 18 18 16 14 12 12 11 11 11 11 11 11 10 10 9 9 8 8
100 90 62 50 43 41 46 47 73 67 62 62 67 72 77 62 36 26 27 25 22 20 22 22 22 21 20 19 18 16 13 14 14 15 14 13 12 14 17 15 12 10 9
79 66 74 68 50 42 45 44 47 56 67 74 81 78 54 33 31 34 33 33 31 31 28 26 24 24 21 20 18 16 15 14 13 14 16 16 18 21 27 29 28 24 19
86 85 81 70 68 58 62 64 69 81 87 86 76 57 51 56 56 47 46 40 32 28 26 26 26 25 23 20 19 17 15 14 14 14 12 12 17 21 27 31 36 36 36
96 81 70 80 71 67 71 76 88 94 94 77 65 58 47 44 42 37 37 30 28 29 33 33 29 25 21 17 14 12 11 10 10 10 9 9 10 10 12 16 22 26 29
90 88 85 88 80 83 88 90 90 69 51 45 43 39 35 34 32 30 29 32 35 36 34 29 22 16 13 10 8 9 13 12 12 11 9 8 10 9 9 10 10 9 10

GFSSE_500_rhum_024.txt.gz
RH
73 65 66 89 96 94 78 24 5 6 6 5 4 3 4 5 7 8 8 9 10 10 11 11 12 12 13 14 14 14 10 6 6 5 5 7 7 6 5 7 6 7 8
80 61 39 77 60 44 20 6 6 7 5 4 4 6 7 7 8 9 10 10 11 12 12 12 12 12 12 13 14 13 14 14 11 7 6 8 8 6 4 4 4 8 8
82 88 87 51 45 18 11 6 8 8 6 4 6 6 6 8 10 12 12 12 13 13 13 13 14 14 15 17 17 16 16 13 13 13 10 7 6 9 8 3 4 11 12
76 54 45 35 33 22 5 7 8 9 6 5 6 6 6 7 7 10 12 13 13 14 15 16 17 17 18 19 20 22 22 21 21 19 15 12 11 6 8 8 9 18 32
42 31 15 18 26 8 7 5 6 7 5 6 6 6 6 6 6 8 10 12 14 15 16 18 18 19 19 20 22 23 25 23 23 25 28 26 17 11 11 7 10 27 44
44 24 14 12 8 7 4 4 5 5 4 6 6 6 5 6 6 8 10 10 10 11 11 13 16 19 20 19 22 21 24 24 24 27 30 30 30 28 14 12 9 16 26
34 24 12 7 6 4 3 4 4 4 4 5 5 5 5 6 8 9 9 11 15 18 22 25 25 22 20 18 18 21 26 26 21 21 26 32 32 31 35 19 12 10 8
25 18 6 6 6 3 4 4 4 4 4 4 5 6 7 9 10 13 20 21 21 20 21 21 20 20 23 24 24 27 31 32 33 32 29 28 30 32 33 39 33 16 26
27 14 6 7 3 3 4 4 4 5 5 6 8 8 11 12 17 21 19 20 26 28 28 28 26 27 27 26 26 30 33 34 34 35 36 33 29 25 30 32 39 49 45
7 7 7 3 3 4 4 5 6 6 7 8 9 11 15 19 21 17 17 23 25 27 26 28 24 22 22 22 24 27 28 30 33 34 35 35 34 30 24 27 37 43 53
6 4 2 3 4 5 6 6 7 7 10 11 17 24 26 21 18 19 20 21 19 19 21 26 29 27 24 23 28 28 32 34 33 34 35 33 35 36 34 30 28 32 44
5 5 5 5 7 7 8 8 10 12 17 27 31 32 31 32 29 30 29 22 26 22 20 24 30 31 31 32 32 30 28 25 28 34 36 30 22 22 28 34 32 31 30
6 7 8 9 8 10 14 16 18 24 29 32 41 61 73 77 76 62 61 34 26 29 29 29 32 36 39 41 37 32 28 25 24 26 30 29 23 18 16 17 21 30 31
8 13 15 16 17 19 22 23 27 50 64 48 82 98 93 78 64 62 48 27 29 33 38 38 37 38 37 37 36 33 30 32 31 28 25 24 26 27 24 20 18 17 19
16 13 12 16 20 21 23 35 41 57 55 81 99 61 36 38 41 29 24 32 29 34 38 37 38 40 40 39 40 41 40 40 40 38 35 33 32 30 27 28 26 23 20
15 16 19 34 25 23 27 32 61 78 83 95 78 44 25 22 22 22 27 27 37 43 43 45 47 49 49 47 45 40 33 24 19 18 20 25 33 38 38 34 30 28 28
22 23 28 25 56 78 86 81 84 98 98 71 31 24 20 20 27 31 36 50 57 54 57 57 56 51 32 16 14 13 13 14 13 12 10 9 10 10 12 18 30 34 31
31 27 20 44 78 85 92 96 97 97 92 72 37 40 36 42 63 67 67 66 56 56 54 38 19 15 14 14 14 15 15 14 13 11 11 10 9 8 7 8 8 9 14
44 39 44 75 80 100 98 97 88 94 98 69 56 53 68 83 60 59 64 62 58 29 15 14 15 15 15 15 15 15 16 16 16 14 12 10 9 8 8 7 7 7 7
58 37 59 69 66 96 97 80 72 65 59 53 57 72 66 63 58 65 67 50 26 20 20 20 19 20 18 17 17 16 16 16 15 14 13 12 11 10 9 9 8 7 7
51 61 95 74 98 77 68 81 72 61 66 66 66 65 61 68 69 64 40 24 23 25 23 21 21 22 23 22 20 19 18 17 16 16 14 13 12 11 10 10 9 9 9
93 96 68 53 42 37 41 59 71 71 63 64 65 69 72 68 48 28 25 23 23 25 27 31 32 34 33 26 20 18 17 18 19 20 19 18 16 15 14 13 11 10 10
87 70 60 41 44 64 79 64 60 65 67 68 72 70 52 33 32 33 36 43 48 47 40 33 28 18 16 18 18 18 15 13 12 14 19 21 19 18 16 15 15 15 14
78 55 51 73 99 91 71 62 63 66 68 64 51 42 43 48 53 58 55 38 32 25 20 16 14 16 18 18 21 23 26 26 24 19 17 15 13 12 12 12 11 11 12
59 60 99 99 100 86 74 76 76 84 79 66 67 64 56 50 38 32 30 25 19 15 15 16 18 23 27 34 32 30 24 15 12 10 9 8 9 9 8 10 11 10 10
57 100 90 97 86 89 100 96 86 73 63 58 47 38 33 33 31 28 21 15 16 18 20 23 27 33 38 32 28 20 12 9 9 10 9 11 19 18 12 8 10 9 9

GFSSE_500_rhum_027.txt.gz
RH
94 80 61 64 56 59 60 36 14 6 4 4 3 4 6 8 8 9 10 11 12 12 13 13 13 14 14 14 15 15 15 15 15 12 8 6 6 6 5 6 6 5 5
97 90 73 72 81 56 27 17 9 5 5 3 4 7 8 8 11 12 12 12 12 12 12 13 13 14 14 16 17 18 18 18 17 16 16 14 12 7 6 11 7 6 11
96 96 94 86 34 17 25 22 6 8 5 4 7 7 7 9 10 12 12 13 13 13 13 13 13 14 14 15 16 17 19 20 19 20 21 20 17 13 12 8 16 17 20
96 91 55 36 28 22 28 8 7 7 6 5 7 7 7 8 8 8 10 12 13 14 13 12 13 14 15 16 18 18 18 17 17 20 21 22 23 24 18 16 16 8 22
70 71 53 29 32 27 11 8 6 6 6 5 7 6 6 6 6 7 8 10 10 10 10 11 12 14 16 18 18 17 15 18 19 17 16 20 24 24 28 30 15 10 14
63 47 36 29 26 16 7 5 4 5 5 5 6 6 6 6 6 6 8 9 12 15 16 15 13 12 12 12 15 16 15 20 26 28 27 21 18 23 26 27 31 18 12
47 40 32 33 15 8 5 4 5 5 5 5 5 5 5 5 7 8 9 12 16 15 13 14 16 16 15 18 22 25 26 26 27 27 28 30 28 18 22 26 28 31 27
38 31 32 9 7 8 4 4 4 4 4 4 4 5 6 8 8 10 14 18 15 14 18 20 17 16 17 19 22 22 21 22 25 26 28 30 31 28 21 23 27 28 32
21 23 11 7 9 4 4 4 5 5 5 6 6 7 8 9 11 16 20 16 15 14 17 15 14 12 13 15 18 22 23 25 26 27 29 31 32 30 24 23 24 26 29
20 22 9 9 4 4 5 6 7 7 7 8 8 8 10 15 20 18 18 21 20 20 17 18 17 15 13 12 13 17 20 27 26 27 30 32 32 31 30 25 26 26 27
11 10 7 4 4 6 7 8 8 8 9 10 12 14 19 22 22 34 48 58 58 55 28 27 23 26 27 26 25 24 23 25 28 24 24 28 33 34 32 32 30 30 29
8 8 8 8 8 8 9 9 9 10 13 18 25 30 29 39 69 73 71 70 64 45 36 29 30 32 34 36 37 36 35 33 30 26 23 22 25 32 28 20 20 23 30
8 8 9 10 9 9 11 16 19 22 22 37 58 54 53 73 59 55 50 53 47 44 33 30 33 32 36 36 35 35 36 36 34 31 29 29 28 25 24 24 23 19 16
9 10 14 14 15 18 18 19 23 24 35 47 63 61 66 74 65 42 22 17 17 18 28 30 33 36 37 37 40 39 40 42 44 44 44 41 38 36 34 30 27 25 23
15 15 15 18 18 20 20 19 24 33 41 60 68 74 82 68 44 31 20 19 25 30 30 37 41 42 45 48 49 48 45 39 35 29 23 21 21 25 29 34 37 35 32
13 14 46 26 36 29 31 44 63 72 81 86 93 96 73 47 35 32 30 38 50 46 44 43 50 55 59 57 48 29 19 15 14 14 14 14 13 13 13 13 13 16 28
20 29 21 47 66 50 79 92 96 95 98 98 96 97 96 63 46 45 56 65 55 45 54 59 58 61 42 23 19 19 18 16 13 12 12 11 10 10 10 10 10 10 10
41 32 46 37 61 64 97 100 98 98 98 97 92 73 54 49 44 49 47 51 54 60 61 65 56 27 18 17 17 17 17 16 16 16 15 14 13 12 11 10 10 9 8
38 52 56 56 74 98 100 98 96 96 94 91 83 89 94 81 81 62 64 70 67 63 46 26 22 20 18 20 20 20 19 18 16 15 15 14 14 13 12 12 11 10 8
65 65 62 77 89 97 98 94 78 68 56 55 72 86 74 67 69 75 69 67 47 29 27 25 24 24 23 22 20 18 16 14 14 13 12 12 11 10 10 10 10 9 9
48 69 71 72 98 84 65 34 52 93 78 68 65 61 65 70 71 70 59 32 27 26 27 27 27 27 24 19 15 14 15 15 14 16 15 14 12 11 10 9 9 8 8
73 86 80 73 63 41 44 78 80 82 74 61 52 65 63 56 43 34 32 37 41 43 42 38 30 18 16 16 16 16 16 17 17 19 18 16 14 13 14 13 10 8 8
54 56 75 72 56 47 78 66 46 52 66 51 63 71 63 52 53 53 54 54 49 41 32 27 20 15 16 16 18 19 18 18 18 21 26 29 24 18 18 22 20 18 17
86 93 76 56 39 39 66 72 73 66 70 84 86 74 56 55 58 56 47 44 38 32 29 21 15 17 16 18 21 24 25 24 24 23 25 18 14 15 13 15 16 14 13
90 56 41 70 62 72 100 85 44 72 87 81 68 60 57 54 49 45 45 38 34 31 24 20 22 25 27 28 27 28 30 32 26 15 6 5 6 6 6 6 7 9 9
40 48 94 100 96 85 52 39 60 73 59 54 54 54 53 49 48 45 39 37 33 28 25 25 26 30 33 35 36 34 27 15 6 6 6 8 9 11 12 12 13 15 17

GFSSE_500_rhum_030.txt.gz
RH
56 72 84 83 93 85 66 33 17 12 5 4 3 3 5 7 8 10 10 11 11 11 11 11 11 12 12 13 13 14 15 16 16 17 16 16 14 13 10 6 7 12 10
63 96 90 90 95 83 26 16 21 9 5 4 3 6 8 8 9 10 12 12 12 11 11 11 11 12 12 13 13 13 13 13 14 14 15 18 19 18 17 14 13 15 29
93 89 97 95 79 49 22 22 17 5 6 4 5 7 7 8 9 10 12 12 12 12 11 10 10 11 11 12 13 13 14 13 12 11 12 15 17 18 21 32 20 20 10
92 96 96 86 49 39 29 20 7 6 7 4 6 7 7 7 8 8 9 10 10 10 10 11 11 10 11 12 12 12 11 12 11 14 15 13 12 16 16 21 26 25 14
97 96 86 76 46 40 27 11 6 5 6 4 7 7 6 6 6 7 8 9 9 10 13 10 8 8 10 10 10 12 15 15 17 22 24 25 24 18 14 19 20 24 29
96 92 72 44 47 54 14 8 4 5 5 5 6 7 6 6 6 7 8 8 10 13 11 8 8 10 11 13 15 16 18 22 22 20 21 23 25 25 20 22 19 21 27
97 74 44 56 76 23 9 7 5 6 7 6 6 6 5 6 6 7 8 10 14 12 8 10 10 12 13 11 12 15 18 19 18 20 21 21 22 25 28 25 18 19 24
90 54 49 60 59 12 12 5 7 6 6 5 5 5 5 5 7 8 9 14 13 11 12 12 13 13 12 13 12 10 14 19 19 19 22 25 26 24 25 26 27 20 20
78 52 70 54 12 16 6 5 6 8 6 6 5 5 6 7 8 9 13 15 17 34 39 44 37 14 18 17 12 14 15 13 18 20 24 25 27 29 29 29 26 23 22
32 51 63 13 15 12 5 7 8 7 6 6 6 7 8 10 12 17 19 18 50 59 55 52 37 22 37 29 20 17 19 24 22 22 25 26 26 27 31 31 31 29 25
25 37 15 16 13 5 7 9 8 7 6 7 10 11 15 22 27 27 31 55 67 48 47 51 45 43 26 19 20 27 27 27 28 29 31 29 23 22 28 33 32 32 34
16 13 10 7 6 6 8 8 8 8 8 11 16 23 30 46 52 55 57 57 57 24 20 19 20 20 23 24 26 34 34 34 34 32 31 32 29 26 25 27 31 25 24
9 9 9 8 8 8 9 9 10 15 18 19 27 43 58 68 70 59 62 61 35 23 19 19 26 29 28 28 32 35 38 39 40 38 36 35 35 34 32 29 25 25 24
10 11 12 12 13 17 21 20 19 22 25 40 56 58 59 66 69 66 64 50 41 28 22 23 34 30 36 39 41 43 46 48 51 50 47 46 43 41 40 40 37 33 29
14 17 21 20 21 26 26 27 24 29 34 44 63 66 78 78 83 85 71 50 43 37 31 38 41 32 31 41 49 54 54 52 47 32 23 19 18 16 16 16 19 27 34
17 17 25 51 31 41 53 47 44 78 87 92 94 98 98 99 97 80 71 51 40 36 32 38 38 43 50 58 60 61 47 29 21 18 18 16 16 14 14 13 12 12 13
18 52 68 52 68 80 73 59 62 74 98 98 98 98 98 93 82 59 46 40 42 47 50 54 59 62 63 59 43 32 20 18 18 19 19 19 17 16 16 15 15 14 12
36 40 42 76 76 81 96 93 96 97 97 98 98 96 94 89 74 63 66 69 68 66 69 71 57 33 27 23 23 22 24 23 22 20 20 18 17 16 15 14 13 13 13
32 40 58 77 77 97 92 85 99 98 96 89 66 77 72 67 64 71 77 77 75 80 71 46 32 29 28 27 28 26 24 22 20 18 17 16 16 14 13 13 12 11 10
46 53 58 63 76 90 85 96 91 60 63 74 69 81 69 64 71 76 78 75 61 47 34 30 30 30 32 32 30 26 23 17 12 10 10 9 8 8 8 8 8 8 9
49 40 65 74 80 94 96 69 47 40 77 92 80 61 44 44 52 56 47 41 40 39 44 45 46 45 40 34 32 29 22 17 14 13 15 14 14 13 13 10 9 7 6
32 53 60 56 58 79 70 50 45 62 92 99 74 52 52 70 73 73 72 68 68 64 57 53 51 42 38 34 29 19 14 15 14 11 12 14 13 13 13 13 14 12 9
50 58 59 83 95 76 57 71 69 66 81 66 51 60 72 71 66 63 63 63 59 57 55 48 42 40 35 28 20 18 16 19 20 22 18 17 15 16 16 14 12 11 10
45 65 94 86 59 41 45 47 50 48 39 37 46 57 60 62 64 64 60 57 58 55 47 45 44 40 37 31 28 27 24 23 23 20 20 20 17 13 8 4 4 4 3
36 30 31 27 27 24 36 43 28 23 25 33 42 50 55 53 56 58 63 65 58 52 51 46 38 31 30 32 33 30 29 27 27 27 25 18 7 4 4 4 5 6 6
20 18 18 18 20 21 19 19 20 23 28 35 43 49 50 56 63 67 70 63 59 53 45 35 32 35 33 34 32 31 28 28 30 18 8 6 6 8 9 10 9 9 10

GFSSE_500_rhum_033.txt.gz
RH
46 47 48 59 77 80 81 77 54 18 10 5 3 3 4 6 8 9 10 11 11 11 11 11 10 10 10 10 10 10 10 9 8 9 12 14 16 16 19 16 14 13 13
59 46 47 64 85 91 88 63 30 14 9 5 3 4 7 7 9 11 12 12 12 12 11 10 10 9 9 10 10 9 8 8 8 8 7 8 36 14 15 17 25 27 17
65 46 56 88 96 93 69 41 19 12 5 5 3 6 7 8 8 10 10 10 10 9 9 10 10 7 7 7 8 8 9 8 8 9 8 19 11 9 12 15 16 19 22
82 63 82 97 96 78 54 28 16 7 5 6 4 6 7 7 7 8 9 9 8 9 10 11 8 6 7 8 9 10 10 13 14 14 18 18 19 17 16 12 12 15 19
95 95 97 95 95 72 57 33 9 6 5 6 4 7 7 7 6 7 8 7 8 9 11 10 7 7 7 8 8 8 10 13 17 19 19 17 16 16 17 19 18 15 17
93 97 96 96 92 74 62 26 6 4 5 6 6 7 7 6 6 7 7 7 8 10 11 9 8 9 8 8 9 9 8 10 13 16 16 15 14 15 17 19 21 20 15
97 96 97 96 83 94 71 7 7 4 7 5 5 6 6 6 6 6 6 8 9 11 11 14 17 25 20 12 16 20 11 11 10 10 12 14 13 15 17 18 22 26 20
97 96 95 95 97 97 33 9 5 6 6 5 6 6 5 5 5 6 8 8 9 13 19 50 48 47 40 20 25 33 22 14 12 17 13 14 14 15 18 19 21 24 28
96 96 92 95 97 63 11 9 6 6 5 5 5 5 5 5 6 7 8 10 12 15 33 55 44 44 39 27 29 16 13 11 12 14 16 22 18 17 20 21 24 25 27
96 91 97 97 66 12 13 5 5 5 5 5 5 5 5 6 7 9 13 24 28 26 43 53 35 31 22 17 18 18 14 14 16 18 22 23 25 25 23 21 21 26 28
94 97 97 76 18 15 9 5 5 5 5 5 5 6 7 10 13 15 26 39 44 47 43 47 29 24 21 20 18 17 17 19 21 22 26 25 29 31 29 24 20 23 30
85 55 46 16 12 8 5 5 6 7 7 9 12 16 17 18 21 32 40 47 50 54 55 45 38 26 19 20 22 25 27 27 30 33 35 33 32 32 33 29 24 20 25
22 15 7 5 5 6 8 10 11 16 19 20 24 34 43 46 45 46 58 59 61 60 44 39 36 33 27 26 27 30 32 38 42 45 46 46 43 38 35 33 32 28 25
7 8 8 9 11 12 16 22 20 21 24 35 54 63 63 64 74 75 70 71 72 66 57 52 46 36 38 30 31 31 37 52 53 53 52 55 48 45 43 40 39 38 37
10 12 17 18 21 21 21 24 26 33 42 56 63 77 84 97 96 96 98 77 63 50 44 38 35 34 36 41 46 48 55 61 62 62 50 38 27 21 18 18 17 17 17
17 18 20 22 26 34 36 54 64 66 53 64 91 100 100 100 98 96 95 87 77 66 61 44 39 41 48 49 58 64 62 50 40 37 26 21 19 19 20 20 19 18 16
26 29 68 80 48 42 62 67 77 81 97 97 98 96 98 97 94 92 73 64 88 54 55 63 60 57 58 59 54 33 29 26 25 23 23 24 23 22 22 20 19 18 16
30 34 29 26 39 55 63 84 87 100 98 94 98 93 92 92 87 71 61 59 56 67 68 66 58 60 54 41 31 30 29 28 30 29 27 24 23 21 20 20 18 14 15
34 36 45 64 74 69 76 75 97 98 97 93 76 81 92 90 79 57 58 66 68 62 50 44 41 38 35 34 32 35 37 36 36 33 30 28 25 22 18 13 15 13 14
40 50 58 54 47 64 76 71 96 82 67 54 54 69 92 78 58 44 39 39 41 38 42 45 50 54 54 52 50 49 46 41 37 35 33 29 22 16 12 10 9 8 8
29 41 37 29 42 66 71 65 58 71 60 52 52 56 51 38 30 32 38 46 64 66 70 69 64 61 61 56 51 47 46 42 33 26 22 20 18 16 13 12 12 12 10
23 28 26 29 23 31 38 56 69 54 38 42 30 25 24 24 35 46 61 66 71 73 66 65 70 67 61 56 51 42 30 25 28 31 25 21 17 16 16 15 14 14 13
34 30 40 50 41 62 76 45 31 26 26 24 23 22 24 29 33 41 50 57 58 62 66 65 64 62 56 44 35 35 32 29 24 27 26 23 19 16 15 14 13 12 11
29 33 31 29 25 26 24 20 17 18 20 21 20 21 21 27 30 35 35 37 43 53 61 64 66 55 45 43 42 44 44 37 33 28 22 16 14 12 12 10 9 7 5
37 26 21 17 17 16 18 19 19 20 20 21 21 21 24 25 32 33 33 33 43 56 68 67 60 57 52 47 47 47 44 36 25 18 16 14 12 9 5 4 4 4 6
18 17 18 18 20 22 23 23 23 23 24 24 25 28 29 30 32 34 34 40 54 62 64 58 56 56 54 51 45 42 30 19 16 16 12 8 4 6 8 10 14 15 15

GFSSE_500_rhum_036.txt.gz
RH
80 69 60 51 47 46 54 68 68 76 62 33 10 3 3 4 6 8 9 11 11 11 10 8 7 7 6 5 5 5 5 5 4 4 5 14 18 32 25 8 9 9 14
95 85 68 54 50 52 68 80 79 73 50 21 7 3 4 6 8 10 11 12 11 10 8 8 8 7 5 5 6 6 6 5 4 5 12 14 30 16 7 8 10 13 12
93 94 86 67 57 49 59 100 84 61 30 10 4 3 5 7 8 9 10 10 10 9 9 9 9 7 6 6 6 6 7 8 6 7 11 16 17 15 16 16 12 10 11
92 86 89 92 88 86 96 97 82 34 23 6 4 4 6 7 7 8 8 8 8 8 9 10 9 7 6 5 6 6 7 7 7 7 7 16 14 12 14 15 17 19 15
82 84 81 90 97 96 98 94 61 32 10 5 5 4 6 7 7 7 8 8 8 8 9 10 10 8 9 10 8 10 16 13 7 5 10 6 11 11 11 12 14 16 22
83 81 86 91 97 97 95 92 80 17 6 4 6 5 7 7 6 6 7 8 7 8 9 10 12 25 29 34 17 14 27 26 18 7 9 8 8 8 9 10 10 14 17
99 96 95 97 99 96 95 95 38 7 4 5 6 5 7 7 6 6 7 7 7 8 9 12 24 40 40 43 37 22 22 18 12 6 10 7 9 9 8 8 9 12 15
97 96 96 96 97 96 96 74 14 5 4 7 6 5 6 6 6 6 7 7 7 9 13 18 24 42 42 38 32 26 23 18 19 13 10 6 9 11 14 12 11 12 16
96 97 96 96 96 94 92 62 37 13 8 6 5 9 6 5 5 6 7 7 10 13 32 33 29 34 46 38 32 28 25 26 21 16 13 10 10 12 15 18 19 16 17
96 96 96 97 95 92 77 40 27 14 6 5 6 5 4 5 6 7 7 11 13 23 40 41 41 41 40 34 29 26 22 24 21 16 21 15 15 17 20 22 24 27 23
95 96 96 95 88 49 30 16 5 5 6 6 5 5 6 8 10 13 15 17 29 38 41 44 52 49 43 37 35 32 32 29 22 19 22 19 27 24 24 27 28 28 29
96 96 93 62 19 19 11 4 5 8 9 11 11 11 43 28 23 34 43 45 50 58 55 53 53 50 44 40 38 35 32 29 27 24 23 28 31 33 32 34 35 32 30
94 91 40 34 18 7 5 7 10 12 18 18 24 19 28 48 55 71 73 85 93 87 74 60 55 45 40 39 35 35 38 42 37 33 32 41 56 54 49 49 48 44 36
7 7 7 8 9 10 12 14 18 25 21 33 31 47 63 77 83 84 83 100 93 81 69 60 50 46 43 38 36 38 39 42 48 50 49 56 60 63 55 50 43 35 36
12 13 15 16 18 21 24 23 33 58 62 96 92 80 83 92 88 87 98 83 77 76 53 56 34 28 37 36 37 42 53 57 59 62 62 51 50 52 35 26 22 19 18
14 18 22 24 27 38 56 54 72 86 84 92 100 96 96 85 89 76 90 83 72 63 29 32 36 34 39 45 49 52 57 57 48 41 32 29 28 28 26 24 24 24 23
20 22 29 60 56 38 45 62 73 91 91 96 95 92 99 72 76 85 70 40 32 29 26 27 31 33 36 36 36 36 35 35 32 29 29 28 26 28 29 28 27 25 23
24 24 27 29 40 55 59 70 74 95 83 97 88 86 90 60 50 35 30 39 28 29 32 37 38 38 39 40 41 40 41 42 41 39 39 39 35 32 32 32 31 29 27
18 21 25 27 47 66 74 67 62 76 95 84 64 54 54 33 17 18 26 27 24 25 28 33 43 46 51 52 51 51 52 53 54 51 47 46 44 41 39 36 32 31 28
24 27 33 41 54 39 45 45 54 52 44 61 55 28 22 18 18 20 22 22 24 25 28 28 34 45 49 46 52 60 65 64 61 56 48 39 33 29 26 23 21 18 18
28 27 26 30 26 24 25 30 38 60 54 27 21 21 19 19 21 21 21 23 31 34 30 32 33 36 45 51 55 62 64 59 51 46 41 34 31 27 25 24 23 20 17
17 15 14 20 33 39 34 28 35 30 18 17 18 18 19 20 21 22 25 25 28 34 35 32 30 38 48 53 53 51 45 46 46 44 40 38 36 33 28 25 22 19 18
13 17 22 30 36 31 27 18 17 18 19 19 20 22 24 26 27 28 30 35 36 34 36 36 33 44 49 50 52 51 48 46 40 39 37 35 30 23 20 17 14 12 10
16 19 53 37 23 20 20 19 21 22 23 24 25 26 28 30 32 34 34 35 37 39 41 37 38 57 62 61 64 62 52 43 33 28 26 23 20 18 16 12 9 8 7
26 53 28 18 34 39 22 23 25 26 26 25 26 29 30 34 37 38 38 41 40 38 38 37 53 67 72 70 60 50 42 35 39 39 33 28 22 15 10 6 4 5 6
23 18 24 54 23 24 26 28 30 30 27 29 34 37 38 41 50 56 51 45 42 39 39 55 73 78 76 66 50 43 38 43 43 29 18 12 8 7 6 7 8 12 15

GFSSE_500_rhum_039.txt.gz
RH
85 88 91 81 86 67 58 52 52 62 69 74 67 52 11 3 3 5 7 8 9 9 8 7 7 6 4 4 3 3 3 3 3 3 7 18 14 21 33 21 5 5 6
68 91 95 94 93 87 63 59 54 63 73 71 68 44 7 3 5 7 9 10 11 10 9 8 8 7 5 4 3 3 2 2 3 4 7 14 7 6 6 7 7 6 7
83 88 89 97 97 94 83 83 61 70 75 76 28 22 4 4 6 8 10 11 10 9 8 8 8 7 5 5 4 4 4 4 4 5 5 4 6 8 9 9 10 11 10
73 72 92 87 97 93 95 92 89 93 90 70 20 11 4 5 7 8 9 9 9 8 8 8 9 8 7 6 7 6 6 5 9 8 5 6 6 8 9 10 10 10 10
68 87 94 93 94 96 93 96 95 97 90 50 15 6 4 6 8 8 7 8 8 7 8 8 10 10 11 17 17 19 10 8 10 7 6 6 5 6 7 8 8 9 10
70 84 94 96 92 96 95 97 98 98 94 50 11 7 4 7 7 7 7 7 7 7 8 8 11 15 22 26 30 33 30 14 11 17 15 12 6 4 6 6 6 7 8
95 91 91 93 99 100 97 97 98 96 92 73 9 5 5 7 7 6 6 7 7 7 7 9 19 29 27 32 40 37 29 19 19 25 26 24 15 8 5 5 6 10 10
95 94 98 97 96 97 97 96 94 77 18 5 6 6 6 7 7 10 6 6 7 7 10 12 24 35 34 34 37 38 37 34 30 29 27 20 16 16 12 7 7 10 13
98 99 99 97 97 97 96 95 73 42 24 11 10 6 6 11 18 8 5 7 7 11 12 18 30 42 34 38 41 42 34 28 28 27 27 26 23 21 17 13 10 14 16
96 96 96 96 96 93 91 94 94 74 42 22 7 26 33 9 5 5 8 13 17 22 33 40 52 55 47 50 46 42 41 36 32 31 31 25 27 24 21 15 13 20 21
93 97 96 96 96 90 91 79 31 25 29 33 34 10 7 9 15 26 26 35 53 70 68 74 70 58 49 42 43 38 37 35 33 32 28 29 29 29 29 27 24 28 29
98 96 96 94 90 74 45 19 15 10 15 10 9 13 17 23 28 43 58 62 74 81 69 78 66 58 55 42 38 40 37 36 34 32 36 34 33 30 35 40 38 37 38
96 96 94 81 65 44 31 14 8 11 15 18 21 33 46 52 47 64 62 62 63 61 55 61 58 38 51 46 36 30 37 47 49 33 36 40 37 38 49 50 51 57 57
94 81 29 14 9 9 9 10 11 20 20 41 40 73 66 72 75 66 56 57 36 52 66 59 60 44 18 26 24 23 26 31 38 32 41 44 47 47 51 52 54 59 52
55 45 25 16 10 13 16 19 33 47 68 76 79 73 78 63 61 66 55 36 26 37 48 17 25 15 15 22 23 24 26 33 32 35 34 37 45 42 40 37 31 29 29
8 11 13 15 16 30 42 45 45 60 76 89 72 86 79 62 74 77 51 31 20 18 17 18 20 20 22 25 24 24 25 29 30 32 34 33 34 34 30 29 31 35 32
14 15 17 17 22 34 39 48 59 69 72 65 60 79 72 55 64 52 27 19 18 20 21 22 22 24 24 25 28 30 31 35 43 44 43 43 40 38 35 31 32 34 38
19 22 30 36 40 54 63 60 75 53 49 58 62 73 54 47 30 21 19 19 19 21 22 22 23 24 23 23 24 28 30 34 44 44 49 50 46 47 44 39 38 39 39
24 26 29 34 37 71 58 52 49 44 40 51 66 55 27 28 19 19 20 21 23 24 25 27 29 29 28 28 29 27 37 41 46 45 56 57 57 54 49 45 42 39 36
44 40 30 24 38 52 44 39 70 44 48 63 40 22 20 20 21 23 26 28 29 31 32 34 35 36 35 33 32 31 46 51 55 49 52 48 45 43 41 37 35 32 29
26 45 40 26 28 46 52 58 42 32 17 18 20 19 20 22 25 27 28 31 33 35 38 41 41 38 36 33 29 33 49 54 54 55 53 53 46 38 34 30 27 25 23
19 21 22 24 28 52 46 26 20 16 18 20 20 22 24 25 27 27 29 32 38 43 48 49 43 41 36 33 34 44 44 51 54 55 48 41 36 30 26 24 23 21 18
14 19 23 37 39 60 26 19 18 19 21 22 24 26 26 26 28 30 33 37 44 51 57 52 50 41 35 37 49 45 37 35 32 40 39 31 33 29 36 36 28 22 26
14 23 34 69 42 32 26 25 22 22 24 27 28 28 27 25 24 27 34 41 47 53 55 55 52 44 42 54 53 49 52 50 45 38 34 31 30 35 39 42 44 38 21
14 37 19 39 24 47 25 23 25 25 23 24 23 25 24 23 24 25 26 26 31 50 51 53 52 48 58 54 52 53 54 58 56 41 29 24 36 55 48 12 10 8 6
19 24 30 18 19 25 23 26 25 19 18 18 19 20 21 21 22 24 26 27 28 34 46 49 51 61 63 56 61 62 60 56 56 47 38 42 56 48 22 7 6 8 9

GFSSE_500_rhum_042.txt.gz
RH
58 64 77 80 84 89 95 97 92 89 65 66 82 74 58 48 17 3 4 6 6 7 7 6 5 4 3 2 2 2 2 2 2 2 3 9 23 17 9 10 6 4 3
60 66 85 93 76 90 97 99 94 84 90 80 82 80 54 26 6 3 6 8 9 8 8 6 7 6 4 3 3 3 3 3 2 2 2 4 6 4 5 4 4 5 6
63 56 58 91 94 80 94 96 94 89 89 90 88 79 77 7 8 6 8 10 10 9 8 8 7 7 5 4 4 4 4 7 7 4 4 3 3 4 6 6 6 7 8
62 56 49 60 91 88 96 97 97 90 95 98 92 85 18 7 8 7 9 10 10 9 8 7 8 8 8 7 5 5 10 7 10 7 6 7 5 4 4 6 6 6 8
63 73 72 87 91 89 95 99 95 92 96 99 99 99 62 10 10 12 10 8 8 8 8 7 7 10 18 23 22 20 20 21 14 10 14 17 18 14 8 4 4 5 6
47 70 70 71 74 77 97 100 97 97 95 99 97 80 82 11 7 12 8 7 7 7 7 7 8 11 23 25 26 26 30 30 28 18 16 28 27 24 17 15 10 4 4
37 53 98 98 94 84 97 97 97 97 99 97 91 72 35 33 9 8 8 6 6 6 7 7 11 13 23 32 24 21 30 28 32 33 25 24 28 26 25 21 19 11 6
72 93 96 96 96 98 100 98 96 96 99 96 80 42 14 7 11 11 7 6 6 7 7 11 14 21 35 43 35 33 40 41 36 32 32 29 26 26 24 23 24 20 15
91 98 96 96 96 91 99 96 97 95 83 44 16 17 14 21 9 7 6 7 6 10 19 22 22 32 41 50 46 42 40 37 36 35 34 33 29 28 23 21 25 27 25
94 96 94 97 99 97 97 97 97 89 89 81 59 27 14 14 26 11 11 14 11 24 32 47 52 60 63 57 52 46 40 37 31 28 24 26 25 25 27 27 25 26 26
96 95 96 96 96 96 96 95 96 94 70 36 36 47 33 24 20 39 21 32 48 57 63 55 54 44 57 48 43 53 47 39 35 31 26 18 18 20 27 30 28 33 38
88 96 96 96 97 95 95 95 83 68 54 48 36 22 18 17 19 25 37 64 58 51 42 47 50 43 56 64 55 26 48 40 33 27 18 13 12 17 29 36 39 43 44
96 97 96 96 96 89 51 16 9 10 13 14 20 24 20 33 62 60 58 52 42 29 31 35 40 25 31 44 43 16 27 22 17 18 16 16 19 21 24 32 38 43 49
97 93 95 82 76 41 9 10 11 12 18 27 39 43 67 59 57 54 53 55 51 28 16 14 16 16 16 16 15 15 18 20 20 20 19 21 23 28 26 30 39 37 37
94 89 58 24 16 12 14 18 28 33 45 63 66 65 61 61 68 60 56 64 49 17 16 17 16 16 17 16 16 17 17 18 20 21 22 22 22 24 27 30 35 35 35
55 43 50 56 33 27 26 39 38 47 63 72 77 78 54 59 59 37 38 38 19 17 18 17 17 20 21 22 23 23 23 23 22 23 23 27 29 28 28 31 36 37 35
16 17 16 16 18 24 33 46 55 69 71 72 48 44 37 35 34 17 16 16 18 18 21 23 25 27 29 32 33 33 31 29 28 25 24 29 33 33 31 32 34 38 42
20 16 18 26 27 45 66 55 65 54 50 34 26 30 32 35 16 16 17 18 23 26 28 30 32 34 36 39 39 37 36 34 30 28 32 39 39 38 35 34 32 30 30
29 26 16 17 17 47 62 45 32 42 52 37 40 37 18 16 18 19 22 25 28 29 31 33 37 42 47 47 43 43 40 35 32 34 46 47 44 45 44 40 38 35 32
39 36 37 33 21 25 27 55 54 61 37 23 17 18 20 21 23 24 27 29 29 30 33 36 43 48 52 51 50 48 40 37 38 47 50 49 48 44 36 29 25 20 17
27 21 19 22 23 30 60 55 44 34 23 19 20 22 23 25 25 29 29 30 31 33 34 37 44 54 56 54 54 51 44 44 54 58 52 47 46 45 38 31 31 29 29
25 20 19 21 41 54 83 41 20 25 21 23 23 25 25 24 24 28 28 28 28 27 27 28 30 36 43 52 51 50 49 57 59 54 50 48 50 54 48 47 42 32 25
22 23 20 48 71 76 42 26 36 24 23 23 26 24 21 20 23 23 25 26 26 27 26 27 29 29 37 45 48 50 56 60 52 50 45 48 52 61 62 56 61 61 53
20 20 22 70 64 52 32 46 28 23 24 24 24 22 20 21 22 23 24 26 27 29 31 34 38 50 87 76 68 57 66 61 52 43 43 43 41 42 47 43 36 39 32
14 31 45 43 43 36 29 23 24 25 24 22 21 21 21 22 24 26 27 29 30 31 34 40 43 54 99 100 93 62 61 57 54 48 43 42 45 52 38 35 40 48 34
31 26 45 32 28 27 33 22 24 19 20 21 21 22 24 26 28 29 31 33 33 38 56 54 42 45 56 72 62 64 66 60 49 50 48 51 62 67 69 74 59 39 19

GFSSE_500_rhum_045.txt.gz
RH
64 59 62 64 66 74 92 94 82 97 94 92 81 80 81 79 60 34 9 4 4 5 4 5 5 5 4 3 3 2 2 2 2 2 2 2 6 16 9 3 2 2 2
84 84 70 64 73 71 86 81 90 97 91 90 85 91 88 83 77 23 5 4 6 7 7 7 6 6 5 4 4 4 3 3 3 3 2 2 3 3 3 2 2 2 2
68 60 64 69 59 50 54 86 94 92 94 92 90 98 99 92 81 7 6 6 8 8 8 8 7 6 6 6 7 5 5 5 5 6 5 5 4 4 4 3 4 4 5
78 74 72 79 78 78 71 75 98 79 86 85 98 98 99 92 32 6 6 8 11 10 9 9 7 7 8 13 24 24 20 15 14 10 9 8 14 19 18 12 8 5 4
66 70 76 72 57 63 68 83 80 79 93 92 99 96 100 98 90 20 8 18 22 9 8 8 7 7 8 12 18 24 26 26 24 23 23 13 15 27 27 23 18 15 12
59 59 51 57 50 52 92 90 82 100 97 100 97 96 98 64 51 24 27 17 10 7 6 7 7 7 9 10 14 26 23 21 29 28 31 30 20 23 26 26 24 24 22
77 70 72 58 67 97 99 98 94 97 97 94 99 96 91 71 33 10 12 16 18 7 6 6 7 7 9 12 14 17 17 18 26 32 33 26 25 28 28 26 25 22 20
80 80 83 96 93 90 96 98 92 97 96 96 96 89 87 74 62 48 38 17 9 6 9 20 10 14 27 39 44 46 45 41 39 36 32 31 32 30 30 28 27 26 22
73 79 97 85 67 97 97 96 93 99 98 96 83 36 16 14 12 10 11 8 8 23 24 11 14 54 45 35 39 44 47 47 41 37 35 33 29 26 22 19 21 23 23
96 86 97 97 99 98 95 97 97 97 96 82 58 44 21 15 23 21 8 20 29 21 19 25 53 49 47 42 36 33 29 30 28 34 39 36 33 31 26 21 15 13 14
46 93 96 95 96 97 96 98 98 97 96 88 59 34 32 24 12 17 27 32 33 26 40 48 45 51 47 50 41 24 25 30 17 12 18 14 15 17 17 15 14 19 20
71 67 97 98 97 96 96 97 96 96 71 31 38 36 34 34 30 22 22 25 34 48 38 41 34 37 40 28 15 14 15 13 11 11 10 10 9 10 11 13 16 16 20
100 97 97 96 96 96 97 96 96 96 93 92 68 42 35 26 50 61 59 50 63 50 48 39 20 13 14 13 15 15 15 14 12 12 12 12 11 11 14 14 16 19 19
100 98 97 96 96 97 95 86 60 30 18 19 20 25 38 63 65 68 63 60 58 67 58 33 13 13 12 14 17 18 18 19 18 18 18 17 18 18 18 18 18 20 27
93 97 95 95 96 81 56 36 25 21 23 31 61 75 76 72 65 67 66 51 60 72 50 15 15 15 17 19 19 20 21 22 19 20 24 26 27 27 25 23 23 23 27
84 48 59 40 32 35 47 45 47 54 65 80 88 79 78 73 38 40 37 25 18 17 17 16 18 18 19 22 23 22 20 20 19 22 29 32 31 29 27 27 28 30 29
49 52 66 71 66 61 54 46 52 65 68 68 69 33 25 28 33 34 16 15 15 15 16 20 22 23 23 25 25 24 22 21 24 31 35 36 35 33 32 33 32 31 31
25 33 39 40 32 37 47 50 45 50 49 53 47 34 27 27 25 14 17 17 18 21 22 23 24 24 27 30 34 33 30 32 36 38 36 37 39 38 39 36 33 30 28
44 33 30 22 22 59 69 57 44 46 57 61 33 23 18 19 17 18 20 22 21 20 22 23 24 25 27 29 32 37 43 46 45 44 42 42 46 48 45 40 38 32 26
48 46 42 22 15 18 26 43 59 74 64 29 18 17 19 21 21 21 21 20 19 19 21 22 24 24 24 26 27 34 40 43 48 49 48 50 56 53 46 38 29 25 25
20 16 17 22 26 37 42 67 64 40 32 19 19 20 23 23 21 18 19 20 21 22 22 22 24 26 26 28 31 41 53 69 70 71 63 64 68 58 48 41 38 38 38
17 22 20 20 36 73 67 77 33 19 23 22 22 21 21 18 18 19 21 22 22 22 23 26 28 30 31 34 39 43 52 90 100 100 86 73 77 74 69 59 56 52 46
20 17 18 30 70 60 77 40 35 48 29 29 30 21 19 20 20 22 21 22 24 25 26 28 31 35 40 59 64 53 45 49 68 89 75 71 73 71 66 65 64 60 58
34 26 24 47 60 57 56 39 46 44 70 86 29 19 20 21 22 22 23 27 26 28 49 63 71 67 53 78 100 100 92 69 77 82 90 69 70 74 71 68 65 58 64
52 62 47 62 72 60 38 36 56 64 54 22 20 20 20 21 22 22 25 28 41 58 72 74 100 92 57 84 94 100 100 76 67 72 64 70 76 79 78 68 56 40 46
41 57 56 62 72 53 35 33 35 51 25 48 32 18 22 42 26 27 39 57 65 77 96 100 72 59 60 82 77 91 100 99 66 64 70 77 77 84 80 76 59 56 81

GFSSE_500_rhum_051.txt.gz
RH
62 61 70 68 66 61 62 60 62 50 47 47 56 69 73 76 76 70 69 64 22 8 6 6 6 7 7 6 5 5 4 3 3 3 3 4 4 3 2 3 3 3 3
74 73 70 66 65 67 68 68 55 46 44 39 51 66 67 70 78 72 74 56 10 7 7 8 9 9 8 6 6 7 10 12 10 6 4 5 6 5 4 4 4 5 6
92 86 82 70 70 72 78 65 63 59 48 45 42 47 56 68 82 77 77 44 7 7 8 9 10 10 8 7 6 7 8 7 8 9 11 14 11 8 7 6 7 8 12
89 90 87 82 78 76 72 75 71 54 49 56 69 93 80 69 89 84 74 41 8 7 9 12 12 9 8 7 6 7 8 8 9 10 17 11 9 13 12 10 9 10 14
68 74 82 71 73 72 84 86 58 44 51 55 65 93 78 72 91 92 87 71 23 8 9 14 18 9 7 7 8 8 9 10 25 30 32 26 20 24 26 19 15 13 11
62 68 56 62 74 89 94 82 49 53 52 49 65 76 79 70 91 96 87 77 34 14 13 28 24 8 6 7 18 15 11 19 25 29 28 30 32 36 33 31 27 22 19
66 83 80 86 89 89 78 77 82 84 69 64 75 100 90 84 94 93 87 57 20 8 26 22 9 9 8 29 22 17 28 36 36 32 31 35 37 36 36 33 31 30 28
91 96 86 88 78 82 81 93 94 92 85 86 86 98 92 96 94 93 85 70 45 28 20 14 14 16 24 25 22 27 35 41 43 34 21 29 37 28 18 24 28 28 22
77 95 95 95 89 97 89 97 90 92 95 97 93 100 99 97 95 88 49 24 14 18 29 27 20 21 31 25 24 37 38 36 33 20 9 10 8 7 7 8 8 9 8
76 83 89 85 95 93 95 94 81 90 97 95 94 97 97 96 94 80 66 47 39 34 20 18 33 34 28 32 36 26 20 14 11 8 8 8 11 12 13 13 13 13 13
58 49 46 75 88 86 96 92 99 100 96 96 96 96 97 92 78 55 19 12 13 16 32 42 38 34 44 41 28 14 10 10 9 9 9 10 14 14 13 13 12 12 13
64 48 45 54 74 97 87 96 71 83 96 97 96 96 95 87 56 37 22 29 42 51 52 43 40 54 48 55 20 12 12 11 9 10 13 15 15 14 14 14 14 14 13
69 59 51 96 98 98 97 83 97 96 97 98 97 95 81 65 59 67 72 71 62 59 57 63 62 60 52 49 13 13 12 12 13 15 16 15 14 15 14 13 15 15 14
62 62 53 61 69 84 99 98 97 96 97 97 96 78 85 94 92 88 84 76 80 80 69 44 34 44 25 13 12 10 13 15 15 16 16 15 13 12 14 13 15 16 15
60 58 56 73 96 98 96 96 96 96 97 96 90 90 89 80 82 89 93 90 74 46 42 18 15 13 12 12 12 14 16 17 17 16 15 15 13 11 12 13 16 17 17
96 90 74 96 96 97 97 97 97 95 92 80 74 71 84 98 92 78 85 62 38 25 14 12 12 13 15 14 15 16 18 17 15 14 14 16 15 15 15 17 19 18 19
81 92 94 84 82 85 86 92 95 93 93 93 96 98 97 78 34 38 46 27 16 14 14 13 14 15 14 15 17 17 16 14 14 15 17 19 19 20 20 22 22 22 24
79 79 80 86 89 81 83 90 92 95 92 91 83 95 86 81 82 61 33 14 15 16 15 14 14 15 17 16 13 14 14 16 18 20 23 25 27 28 26 24 26 29 30
67 64 66 67 64 60 70 66 66 67 61 51 69 96 77 63 51 18 15 17 18 16 14 15 17 17 13 13 14 13 16 20 24 28 31 35 38 31 34 48 50 52 52
53 51 44 32 52 70 74 70 43 44 44 52 84 78 42 20 18 18 20 20 17 15 16 17 14 15 14 14 14 16 22 29 31 31 42 46 39 35 33 34 36 42 50
43 43 36 24 23 27 30 27 36 45 54 62 98 87 48 26 23 22 20 16 16 17 15 16 24 19 15 14 19 30 34 34 38 46 50 38 37 37 41 42 45 45 45
45 36 28 24 26 30 44 48 47 67 56 54 94 48 78 40 26 31 20 17 17 16 21 30 34 24 17 22 35 38 48 62 67 59 47 48 44 48 50 56 54 52 53
24 27 26 26 31 46 66 72 70 71 55 48 75 94 75 48 60 45 31 36 34 35 29 41 49 31 34 42 61 63 54 71 92 75 70 70 62 66 66 70 74 73 75
19 20 20 18 23 59 69 64 73 44 37 58 79 83 87 81 61 50 46 51 56 48 41 53 53 56 67 65 67 89 78 80 55 44 57 70 74 75 73 77 84 85 86
28 20 19 15 20 39 58 71 66 46 39 53 89 91 77 80 83 78 61 65 71 53 39 88 94 68 84 95 100 79 65 52 57 69 75 72 71 77 79 77 70 57 35
36 30 26 20 52 59 70 80 74 48 22 27 48 80 90 88 83 76 82 84 81 69 60 83 99 100 100 100 98 95 71 76 80 82 73 81 78 76 66 59 38 13 4

GFSSE_500_rhum_054.txt.gz
RH
59 62 59 53 58 57 60 60 55 51 50 48 44 43 53 71 70 69 62 55 51 28 19 12 9 7 7 7 6 5 5 6 6 6 6 4 3 3 3 3 2 2 3
64 69 66 64 62 67 61 62 60 56 54 48 40 38 38 58 56 68 68 65 51 20 16 11 8 8 8 8 7 6 6 7 7 7 8 9 10 12 8 6 4 5 7
70 73 70 76 64 68 62 61 66 68 62 45 40 40 36 36 63 73 74 69 57 20 12 10 9 10 10 9 7 6 6 8 8 10 13 21 16 11 12 14 11 8 6
84 92 85 74 68 70 66 68 71 76 56 37 41 46 60 72 85 69 80 72 63 38 15 9 10 13 14 9 8 7 11 14 9 21 28 29 26 20 13 16 18 17 15
90 80 61 67 69 76 77 80 80 74 59 47 46 58 60 72 86 76 86 88 72 46 18 8 10 16 17 8 6 8 24 18 20 25 26 28 27 26 27 31 31 28 23
77 81 78 71 76 85 93 91 80 71 67 56 58 64 70 64 92 81 96 96 84 62 21 9 11 22 15 8 8 26 21 20 25 32 32 29 26 24 25 26 30 31 30
79 86 91 72 79 91 89 81 75 70 63 83 87 86 65 77 95 96 94 94 87 66 28 10 17 24 10 11 23 26 24 28 40 39 38 32 14 14 25 18 9 14 18
92 81 80 67 76 86 90 85 76 62 73 88 95 99 96 95 100 97 95 89 90 63 28 10 24 12 15 19 29 26 26 36 35 34 27 16 9 8 8 7 8 9 9
83 91 85 91 95 88 94 86 80 69 80 100 92 98 97 99 100 97 97 97 90 64 32 25 21 20 18 28 29 30 35 25 22 14 10 9 9 10 9 9 10 11 12
70 80 93 96 96 92 94 96 95 91 89 97 96 90 95 96 98 97 96 93 66 21 19 21 27 23 35 35 34 40 26 12 11 10 10 10 9 11 12 13 12 11 11
80 84 93 95 94 83 63 93 78 79 98 96 96 96 96 96 97 100 90 69 51 36 30 19 37 41 38 38 51 45 37 12 10 9 8 9 13 14 14 12 11 10 9
61 62 71 80 80 58 50 88 82 97 96 96 99 97 96 95 96 82 79 90 47 22 44 48 43 47 46 53 50 52 24 10 10 11 13 15 15 15 15 15 13 10 9
53 43 45 65 62 79 53 96 97 96 97 96 97 96 96 97 97 96 54 65 66 54 41 53 58 55 42 50 34 19 11 12 14 15 15 14 14 14 13 12 10 10 9
45 42 45 66 57 95 96 97 95 97 90 93 96 96 96 96 92 83 68 61 64 62 60 66 64 40 18 13 12 14 16 14 14 13 12 12 10 10 10 10 11 14 14
34 38 54 65 76 81 97 73 100 93 95 97 96 97 96 92 88 85 83 74 72 68 59 32 24 11 13 15 17 15 13 13 12 11 10 9 11 12 13 14 15 16 18
42 59 85 63 69 69 81 97 93 95 97 96 94 95 96 94 90 95 96 87 75 47 25 14 14 14 15 15 14 14 14 12 11 10 11 14 17 18 20 20 19 19 19
87 75 78 95 99 100 97 96 97 97 92 91 88 88 88 94 93 75 50 42 34 20 16 14 14 14 15 16 15 15 12 11 11 12 14 20 22 24 24 26 25 25 23
83 95 95 91 96 94 96 92 83 73 84 88 90 92 98 97 70 56 55 64 20 16 14 14 14 16 16 15 12 11 11 11 13 17 22 26 29 29 31 32 28 27 27
60 48 52 60 65 70 77 85 85 93 95 88 85 89 97 91 84 70 37 20 17 16 14 14 16 17 15 13 13 12 11 12 20 28 34 36 37 42 38 29 30 30 32
63 56 61 56 60 81 83 79 77 66 62 59 71 88 98 91 75 43 20 19 20 15 15 15 16 16 17 18 18 13 14 22 26 38 37 41 50 49 50 40 38 39 42
56 52 38 68 96 88 88 74 51 54 60 68 78 86 88 90 63 23 23 22 21 18 17 19 23 31 21 19 18 16 31 42 51 53 46 36 34 36 37 42 49 51 43
45 47 39 27 32 36 35 36 38 56 70 62 63 100 99 93 92 35 30 40 47 32 37 41 42 32 13 14 19 41 60 50 46 61 66 51 45 49 52 56 61 61 59
46 40 30 27 26 24 33 62 77 82 82 61 59 76 96 99 99 83 58 68 52 57 57 50 46 50 22 17 47 79 79 80 71 65 61 84 61 62 64 67 62 55 52
26 22 23 23 22 23 51 79 72 80 86 42 52 71 98 98 97 98 95 87 78 70 68 56 48 49 41 51 57 68 91 90 76 76 82 60 58 77 74 74 81 68 36
24 23 22 21 19 19 28 68 74 73 64 46 45 65 95 89 95 88 89 78 80 87 80 71 70 57 53 78 83 84 91 85 96 98 64 71 71 58 59 61 51 52 35
43 37 32 32 31 28 48 62 73 75 76 58 30 21 38 56 82 98 95 96 94 90 84 82 72 65 74 96 100 100 100 100 99 70 75 72 73 73 68 79 89 56 23

GFSSE_500_rhum_057.txt.gz
RH
74 88 77 58 57 55 52 52 51 50 53 52 52 51 45 43 60 70 60 57 50 46 38 29 19 13 8 8 7 6 5 5 6 6 6 7 8 9 9 8 6 5 4
57 86 77 58 62 60 58 60 62 58 58 58 59 58 46 41 39 54 46 56 54 52 38 29 18 11 9 9 9 7 6 6 7 8 9 10 17 17 12 9 9 10 8
66 60 64 58 65 67 63 60 60 62 58 63 68 52 46 45 40 44 63 65 64 58 41 17 15 11 9 10 9 8 6 11 15 10 16 22 25 23 20 16 12 12 13
72 69 75 75 69 68 66 63 63 62 62 67 71 47 48 43 49 71 78 70 72 66 46 17 16 12 11 14 9 8 7 19 25 18 22 27 27 26 24 25 25 26 28
80 56 86 89 83 78 78 80 75 69 72 75 66 49 46 50 48 51 81 73 84 79 60 41 19 11 11 18 16 7 9 20 23 20 26 32 31 28 25 26 26 26 27
72 59 64 77 90 68 71 81 81 86 84 77 64 65 60 65 60 51 68 80 84 92 81 62 31 10 12 23 15 9 22 26 24 25 25 34 35 23 13 11 13 9 8
84 92 95 92 97 76 75 82 81 79 77 74 68 66 83 78 67 64 66 93 96 86 84 75 35 9 15 21 12 20 26 28 25 33 31 26 21 12 9 8 7 7 7
96 93 91 92 96 95 82 75 83 73 72 73 70 72 94 90 96 92 93 96 95 93 85 68 30 11 20 13 16 24 31 27 35 31 20 12 8 8 8 8 8 8 9
65 97 96 96 97 99 97 91 90 85 88 83 77 71 96 92 92 94 97 96 94 88 91 53 26 14 18 15 26 36 36 38 25 16 11 9 9 9 10 11 12 12 12
79 95 94 89 96 96 98 93 96 95 88 95 99 94 92 95 94 98 97 96 95 96 95 90 57 21 20 26 38 42 45 43 27 11 10 8 8 10 12 12 12 11 10
69 86 80 91 98 95 96 94 93 94 98 96 78 86 96 95 95 96 97 96 96 96 85 26 47 22 34 41 50 48 49 44 27 10 8 9 12 12 11 9 8 7 7
79 90 84 82 68 79 70 65 72 98 96 91 87 81 96 95 96 95 97 96 53 56 54 71 35 40 52 47 43 52 38 21 9 9 11 12 11 9 9 9 10 10 11
86 98 86 70 60 52 58 53 54 86 96 98 96 96 94 97 97 96 94 65 93 86 53 58 43 49 53 40 28 22 12 10 11 12 12 9 11 11 11 12 15 15 15
69 81 63 50 50 45 58 97 76 96 95 97 97 98 96 95 96 97 95 95 92 79 65 53 62 61 61 25 13 10 11 12 12 11 11 12 11 10 12 16 17 17 17
51 44 42 40 49 47 47 96 96 92 97 96 98 96 95 97 97 95 94 96 71 68 62 67 39 25 18 13 12 12 13 13 11 12 11 10 10 10 12 16 16 18 22
47 42 38 46 72 66 98 84 95 96 87 85 99 96 96 96 96 94 94 80 77 76 74 44 20 14 14 13 13 14 12 11 10 10 10 10 11 11 16 16 22 24 27
56 61 79 83 90 98 84 80 91 92 88 94 97 98 97 94 89 95 96 77 69 80 34 16 16 16 14 13 14 13 11 12 11 10 9 8 12 15 18 23 28 34 33
81 68 75 100 98 98 91 98 97 96 96 97 95 95 81 84 98 91 73 48 37 34 16 17 17 14 14 14 13 11 13 14 14 10 14 19 19 14 22 31 31 34 35
67 70 81 93 97 98 97 96 97 94 91 95 96 86 85 91 100 76 64 63 55 19 19 17 14 14 14 12 14 16 15 13 13 12 23 36 32 36 33 27 29 29 32
60 53 55 60 62 66 76 76 80 89 96 100 97 91 97 98 97 82 67 33 21 22 18 15 15 16 20 29 27 15 12 11 12 22 34 47 41 47 44 44 38 34 36
59 54 39 43 47 50 58 62 62 56 51 54 51 52 88 98 96 70 28 24 21 19 21 36 32 40 40 39 35 27 17 14 25 45 50 52 59 57 50 54 46 42 42
50 45 38 30 38 66 69 59 52 43 45 53 55 53 78 94 95 55 30 36 20 30 43 49 46 56 51 48 28 17 24 25 19 39 76 78 82 83 85 76 56 56 57
47 44 40 34 25 24 22 28 48 59 54 68 64 54 61 100 97 96 94 79 70 61 74 70 74 78 63 59 54 48 53 43 65 69 36 57 86 89 84 64 50 52 56
27 28 26 25 22 22 21 24 51 66 73 92 73 46 56 67 97 98 98 98 98 82 79 81 86 89 78 50 57 48 30 49 76 87 98 83 53 68 73 51 60 68 58
25 24 22 22 23 22 22 28 39 60 70 66 69 46 45 56 83 72 73 92 98 100 97 98 93 92 73 69 58 30 35 84 98 99 85 100 98 69 49 53 63 66 62
32 39 40 37 35 33 33 39 40 69 58 62 64 56 43 30 47 79 82 87 95 99 98 99 93 83 68 77 86 68 85 98 100 57 82 96 75 69 81 81 70 66 76

GFSSE_500_rhum_060.txt.gz
RH
85 68 56 56 41 39 44 49 46 46 49 48 47 51 53 51 45 45 56 64 57 51 46 40 34 32 23 20 12 9 7 6 5 6 7 7 9 14 13 12 9 9 8
95 97 64 76 66 48 55 50 48 49 48 49 54 59 58 56 48 40 36 41 41 44 47 44 32 24 18 14 12 9 8 6 8 9 9 12 19 21 20 18 16 13 12
96 96 96 86 81 59 52 52 47 50 49 51 58 62 66 57 44 42 39 41 47 56 57 52 33 22 17 13 11 10 9 6 14 20 14 15 18 21 23 22 20 17 18
90 93 90 76 75 64 60 55 53 57 60 62 63 66 72 55 41 42 44 61 69 64 64 59 32 18 19 16 14 13 10 7 12 22 22 19 21 24 24 23 20 20 20
88 84 82 77 70 73 64 70 74 72 71 73 72 71 73 57 42 43 45 46 66 69 78 73 53 32 22 15 14 19 10 9 17 19 20 20 25 27 27 22 15 15 12
82 66 82 89 97 100 96 97 86 86 82 78 75 76 73 64 59 55 52 49 62 73 85 83 75 66 41 16 14 22 12 12 17 21 22 28 27 23 18 13 12 8 6
88 70 90 90 87 85 91 95 92 85 86 87 84 79 74 67 74 74 72 57 56 80 91 89 83 70 58 16 16 17 15 19 25 25 34 27 19 16 10 8 7 6 5
70 94 90 94 85 90 96 89 92 98 82 79 78 73 70 71 81 80 83 83 82 79 92 96 89 78 29 14 19 15 19 25 31 33 21 18 12 10 8 7 7 7 9
75 83 97 96 87 81 96 96 91 82 80 82 78 70 85 81 90 96 84 92 90 93 96 96 86 84 39 22 16 21 33 37 41 36 22 12 9 8 8 11 12 12 9
65 87 90 93 96 95 96 96 95 94 93 96 92 92 84 92 96 90 96 95 95 84 92 90 96 84 51 25 26 33 40 50 48 41 23 9 8 11 12 10 8 9 11
56 58 80 82 86 95 96 97 96 97 97 96 94 93 86 86 88 90 96 96 96 96 95 98 96 82 61 55 44 42 48 54 44 26 10 9 11 10 8 10 11 11 12
64 60 60 69 76 87 88 94 93 93 91 87 96 94 93 84 94 96 90 96 95 97 96 82 36 62 35 50 47 49 56 46 17 9 10 11 8 8 10 11 11 12 14
64 66 50 61 83 82 63 72 65 58 83 80 98 96 98 97 98 97 96 97 96 89 96 66 55 59 62 52 53 32 23 9 10 10 10 8 9 10 10 10 10 10 9
50 44 37 82 78 63 50 51 67 56 96 77 90 97 97 96 70 100 96 96 96 96 90 77 82 68 59 68 56 14 9 10 10 9 8 10 10 9 8 8 8 9 10
36 30 29 73 58 53 47 56 52 60 88 97 96 94 89 78 99 98 96 96 97 92 97 86 70 68 35 23 14 9 10 10 7 9 10 10 9 6 8 10 12 11 14
47 37 41 39 51 42 42 68 92 96 97 96 96 92 79 95 99 98 96 96 88 94 90 83 75 27 14 12 10 11 12 11 10 11 11 10 8 8 12 14 13 14 17
49 40 41 41 41 44 86 71 97 94 99 93 88 95 91 95 97 98 96 82 95 99 98 79 34 15 13 11 12 13 12 14 12 11 7 12 10 11 16 18 13 15 20
72 57 49 46 62 99 99 97 97 93 70 83 97 92 98 100 97 96 87 97 93 73 48 24 15 13 13 12 12 12 17 19 9 8 8 6 11 19 21 27 25 26 36
66 75 78 86 94 96 95 99 97 93 84 96 97 95 96 95 94 96 93 66 54 52 28 16 15 14 12 13 16 27 30 29 30 23 13 15 19 16 15 23 22 25 29
45 40 54 56 80 100 100 97 96 92 95 94 93 92 94 96 93 96 79 75 62 37 16 16 16 16 32 30 30 44 42 31 19 20 32 36 38 70 48 27 31 35 36
59 51 31 20 35 47 48 42 46 60 41 42 41 48 70 88 98 96 95 72 32 19 17 19 21 26 44 42 45 48 50 50 49 25 19 33 41 34 61 72 62 57 60
41 36 36 33 24 21 18 20 24 26 22 23 43 56 65 90 98 98 94 79 50 41 25 20 36 66 68 66 78 63 55 44 34 25 17 14 24 55 66 59 45 60 81
29 38 35 31 22 19 18 16 18 37 51 48 51 62 60 60 97 97 96 84 80 82 92 94 84 77 83 72 96 84 66 55 21 34 31 40 32 34 85 72 46 56 75
21 22 20 19 20 19 15 14 15 24 48 60 63 75 42 44 52 64 94 98 97 98 96 98 93 90 90 88 81 100 92 55 53 74 83 73 53 45 43 51 44 53 92
20 19 19 19 20 21 21 24 25 30 41 42 49 58 57 35 34 45 69 67 90 84 86 89 100 98 83 65 59 77 88 90 88 91 93 100 75 38 29 37 39 50 76
64 34 35 36 37 29 29 45 59 44 29 50 67 75 76 80 65 55 82 71 60 72 85 93 97 89 80 99 99 87 96 90 100 100 98 76 32 54 58 56 74 78 82